| time (UTC) | temp C | wind direction | speed KPH | gust KPH | rain 1hr cm | rain 24hr cm | rain mn cm | humidity % | barometer mb |
| 20260506124731 | 17 | 216 | 6.4 | 8.0 | 0.00 | 0.89 | 0.03 | 62 | 1007.8 |
| 20260506124630 | 17 | 222 | 3.2 | 8.0 | 0.00 | 0.89 | 0.03 | 61 | 1007.7 |
| 20260506124522 | 17 | 197 | 3.2 | 8.0 | 0.00 | 0.89 | 0.03 | 63 | 1007.7 |
| 20260506124421 | 17 | 201 | 3.2 | 8.0 | 0.00 | 0.89 | 0.03 | 62 | 1007.7 |
| 20260506124320 | 17 | 206 | 1.6 | 8.0 | 0.00 | 0.89 | 0.03 | 62 | 1007.7 |
| 20260506124219 | 17 | 197 | 3.2 | 8.0 | 0.00 | 0.89 | 0.03 | 63 | 1007.7 |
| 20260506124117 | 17 | 193 | 3.2 | 11.3 | 0.00 | 0.89 | 0.03 | 63 | 1007.7 |
| 20260506124016 | 17 | 216 | 4.8 | 11.3 | 0.00 | 0.89 | 0.03 | 63 | 1007.7 |
| 20260506123915 | 17 | 253 | 3.2 | 11.3 | 0.00 | 0.89 | 0.03 | 63 | 1007.7 |
| 20260506123814 | 17 | 220 | 3.2 | 11.3 | 0.00 | 0.89 | 0.03 | 63 | 1007.6 |
| 20260506123712 | 17 | 293 | 4.8 | 11.3 | 0.00 | 0.89 | 0.03 | 63 | 1007.6 |
| 20260506123613 | 17 | 211 | 4.8 | 12.9 | 0.00 | 0.89 | 0.03 | 63 | 1007.7 |
| 20260506123508 | 17 | 201 | 6.4 | 16.1 | 0.00 | 0.89 | 0.03 | 63 | 1007.6 |
| 20260506123409 | 17 | 127 | 4.8 | 16.1 | 0.00 | 0.89 | 0.03 | 62 | 1007.6 |
| 20260506123304 | 17 | 157 | 3.2 | 16.1 | 0.00 | 0.89 | 0.03 | 61 | 1007.7 |
| 20260506123207 | 17 | 145 | 3.2 | 16.1 | 0.00 | 0.89 | 0.03 | 63 | 1007.6 |
| 20260506123101 | 17 | 153 | 3.2 | 16.1 | 0.00 | 0.89 | 0.03 | 63 | 1007.7 |
| 20260506123006 | 17 | 148 | 3.2 | 16.1 | 0.00 | 0.89 | 0.03 | 62 | 1007.6 |
| 20260506122905 | 17 | 174 | 6.4 | 16.1 | 0.00 | 0.89 | 0.03 | 63 | 1007.7 |
| 20260506122801 | 17 | 145 | 9.7 | 16.1 | 0.00 | 0.89 | 0.03 | 63 | 1007.6 |
| 20260506122700 | 17 | 135 | 8.0 | 16.1 | 0.00 | 0.89 | 0.03 | 62 | 1007.7 |
| 20260506122558 | 17 | 141 | 4.8 | 12.9 | 0.00 | 0.89 | 0.03 | 62 | 1007.7 |
| 20260506122457 | 17 | 149 | 3.2 | 14.5 | 0.00 | 0.89 | 0.03 | 61 | 1007.7 |
| 20260506122359 | 17 | 156 | 4.8 | 14.5 | 0.00 | 0.89 | 0.03 | 63 | 1007.8 |
| 20260506122252 | 17 | 216 | 4.8 | 14.5 | 0.00 | 0.89 | 0.03 | 63 | 1007.7 |
| 20260506122153 | 17 | 238 | 4.8 | 14.5 | 0.00 | 0.89 | 0.03 | 62 | 1007.8 |
| 20260506122052 | 17 | 252 | 4.8 | 14.5 | 0.00 | 0.89 | 0.03 | 63 | 1007.8 |
| 20260506121949 | 17 | 176 | 6.4 | 14.5 | 0.00 | 0.89 | 0.03 | 63 | 1007.7 |
| 20260506121847 | 17 | 275 | 6.4 | 14.5 | 0.00 | 0.89 | 0.03 | 62 | 1007.8 |
| 20260506121747 | 17 | 216 | 6.4 | 14.5 | 0.00 | 0.89 | 0.03 | 62 | 1007.8 |
| 20260506121646 | 17 | 206 | 8.0 | 14.5 | 0.00 | 0.89 | 0.03 | 63 | 1007.8 |
| 20260506121547 | 17 | 222 | 6.4 | 14.5 | 0.00 | 0.89 | 0.03 | 65 | 1007.8 |
| 20260506121446 | 17 | 232 | 4.8 | 14.5 | 0.00 | 0.89 | 0.03 | 66 | 1007.9 |
| 20260506121344 | 17 | 206 | 3.2 | 14.5 | 0.00 | 0.89 | 0.03 | 66 | 1007.8 |
| 20260506121243 | 17 | 206 | 3.2 | 14.5 | 0.00 | 0.89 | 0.03 | 66 | 1007.8 |
| 20260506121142 | 17 | 206 | 4.8 | 14.5 | 0.00 | 0.89 | 0.03 | 67 | 1007.8 |
| 20260506121040 | 17 | 123 | 6.4 | 14.5 | 0.00 | 0.89 | 0.03 | 67 | 1007.9 |
| 20260506120938 | 17 | 280 | 6.4 | 14.5 | 0.00 | 0.89 | 0.03 | 66 | 1007.9 |
| 20260506120839 | 17 | 203 | 8.0 | 14.5 | 0.00 | 0.89 | 0.03 | 66 | 1007.8 |
| 20260506120736 | 17 | 211 | 6.4 | 14.5 | 0.00 | 0.89 | 0.03 | 65 | 1007.9 |
| 20260506120635 | 17 | 220 | 6.4 | 12.9 | 0.00 | 0.89 | 0.03 | 68 | 1007.8 |
| 20260506120533 | 17 | 267 | 6.4 | 12.9 | 0.00 | 0.89 | 0.03 | 68 | 1007.9 |
| 20260506120431 | 16 | 276 | 3.2 | 12.9 | 0.00 | 0.89 | 0.03 | 68 | 1007.9 |
| 20260506120230 | 16 | 206 | 0.0 | 9.7 | 0.00 | 0.89 | 0.03 | 70 | 1007.9 |
| 20260506120128 | 16 | 206 | 0.0 | 9.7 | 0.00 | 0.89 | 0.03 | 71 | 1007.9 |
| 20260506120034 | 16 | 206 | 0.0 | 9.7 | 0.00 | 0.89 | 0.03 | 70 | 1007.9 |
| 20260506115959 | 16 | 206 | 1.6 | 12.9 | 0.00 | 0.89 | 0.03 | 69 | 1007.9 |
| 20260506115820 | 17 | 206 | 3.2 | 16.1 | 0.00 | 0.89 | 0.03 | 69 | 1008.0 |
| 20260506115720 | 17 | 206 | 4.8 | 16.1 | 0.00 | 0.89 | 0.03 | 70 | 1008.0 |
| 20260506115617 | 17 | 187 | 6.4 | 16.1 | 0.00 | 0.89 | 0.03 | 69 | 1008.0 |
| 20260506115516 | 17 | 164 | 6.4 | 16.1 | 0.00 | 0.89 | 0.03 | 68 | 1008.0 |
| 20260506115415 | 17 | 155 | 6.4 | 16.1 | 0.00 | 0.89 | 0.03 | 68 | 1008.0 |
| 20260506115314 | 17 | 200 | 6.4 | 16.1 | 0.00 | 0.89 | 0.03 | 68 | 1008.0 |
| 20260506115213 | 17 | 220 | 6.4 | 16.1 | 0.00 | 0.89 | 0.03 | 68 | 1008.0 |
| 20260506115113 | 17 | 231 | 8.0 | 16.1 | 0.00 | 0.89 | 0.03 | 68 | 1008.0 |
| 20260506115024 | 17 | 249 | 8.0 | 16.1 | 0.00 | 0.89 | 0.03 | 69 | 1008.0 |
| 20260506114951 | 17 | 188 | 6.4 | 16.1 | 0.00 | 0.89 | 0.03 | 68 | 1008.0 |
| 20260506114807 | 17 | 216 | 4.8 | 14.5 | 0.00 | 0.89 | 0.03 | 67 | 1008.0 |
| 20260506114707 | 17 | 224 | 1.6 | 14.5 | 0.00 | 0.89 | 0.03 | 68 | 1008.0 |
| 20260506114605 | 17 | 134 | 3.2 | 14.5 | 0.00 | 0.89 | 0.03 | 69 | 1008.0 |
| 20260506114503 | 17 | 216 | 6.4 | 16.1 | 0.00 | 0.89 | 0.03 | 69 | 1008.1 |
| 20260506114402 | 17 | 216 | 6.4 | 17.7 | 0.00 | 0.89 | 0.03 | 70 | 1008.1 |
| 20260506114301 | 17 | 222 | 4.8 | 17.7 | 0.00 | 0.89 | 0.03 | 70 | 1008.1 |
| 20260506114200 | 17 | 191 | 4.8 | 17.7 | 0.00 | 0.89 | 0.03 | 71 | 1008.1 |
| 20260506114058 | 17 | 166 | 4.8 | 17.7 | 0.00 | 0.89 | 0.03 | 72 | 1008.0 |
| 20260506113957 | 16 | 178 | 6.4 | 17.7 | 0.00 | 0.89 | 0.03 | 71 | 1008.0 |
| 20260506113856 | 16 | 122 | 9.7 | 17.7 | 0.00 | 0.89 | 0.03 | 71 | 1008.1 |
| 20260506113754 | 16 | 144 | 11.3 | 17.7 | 0.00 | 0.89 | 0.03 | 71 | 1008.1 |
| 20260506113653 | 16 | 167 | 14.5 | 17.7 | 0.00 | 0.89 | 0.03 | 71 | 1008.1 |
| 20260506113552 | 17 | 189 | 11.3 | 17.7 | 0.00 | 0.89 | 0.03 | 71 | 1008.0 |
| 20260506113450 | 16 | 168 | 8.0 | 17.7 | 0.00 | 0.89 | 0.03 | 71 | 1008.0 |
| 20260506113349 | 16 | 119 | 6.4 | 16.1 | 0.00 | 0.89 | 0.03 | 71 | 1008.0 |
| 20260506113248 | 16 | 139 | 6.4 | 12.9 | 0.00 | 0.89 | 0.03 | 70 | 1008.1 |
| 20260506113147 | 16 | 176 | 6.4 | 12.9 | 0.00 | 0.89 | 0.03 | 71 | 1008.1 |
| 20260506113045 | 16 | 175 | 4.8 | 12.9 | 0.00 | 0.89 | 0.03 | 71 | 1008.2 |
| 20260506112944 | 16 | 140 | 3.2 | 12.9 | 0.00 | 0.89 | 0.03 | 71 | 1008.2 |
| 20260506112842 | 16 | 225 | 3.2 | 12.9 | 0.00 | 0.89 | 0.03 | 72 | 1008.2 |
| 20260506112741 | 16 | 206 | 3.2 | 12.9 | 0.00 | 0.89 | 0.03 | 71 | 1008.2 |
| 20260506112640 | 16 | 190 | 4.8 | 12.9 | 0.00 | 0.89 | 0.03 | 72 | 1008.2 |
| 20260506112539 | 16 | 159 | 6.4 | 12.9 | 0.00 | 0.89 | 0.03 | 71 | 1008.2 |
| 20260506112437 | 16 | 216 | 6.4 | 12.9 | 0.00 | 0.89 | 0.03 | 71 | 1008.2 |
| 20260506112329 | 16 | 230 | 4.8 | 11.3 | 0.00 | 0.89 | 0.03 | 72 | 1008.2 |
| 20260506112228 | 16 | 220 | 4.8 | 11.3 | 0.00 | 0.89 | 0.03 | 72 | 1008.1 |
| 20260506112129 | 16 | 257 | 4.8 | 14.5 | 0.00 | 0.89 | 0.03 | 72 | 1008.2 |
| 20260506112024 | 16 | 222 | 4.8 | 14.5 | 0.00 | 0.89 | 0.03 | 72 | 1008.2 |
| 20260506111927 | 16 | 266 | 6.4 | 14.5 | 0.00 | 0.89 | 0.03 | 72 | 1008.2 |
| 20260506111824 | 16 | 251 | 6.4 | 14.5 | 0.00 | 0.89 | 0.03 | 71 | 1008.2 |
| 20260506111727 | 16 | 243 | 6.4 | 14.5 | 0.00 | 0.89 | 0.03 | 71 | 1008.2 |
| 20260506111621 | 16 | 252 | 6.4 | 14.5 | 0.00 | 0.89 | 0.03 | 71 | 1008.2 |
| 20260506111528 | 16 | 233 | 6.4 | 14.5 | 0.00 | 0.89 | 0.03 | 71 | 1008.2 |
| 20260506111454 | 16 | 240 | 6.4 | 14.5 | 0.00 | 0.89 | 0.03 | 71 | 1008.2 |
| 20260506111417 | 16 | 216 | 8.0 | 14.5 | 0.00 | 0.89 | 0.03 | 71 | 1008.2 |
| 20260506111221 | 16 | 222 | 6.4 | 14.5 | 0.00 | 0.89 | 0.03 | 71 | 1008.3 |
| 20260506111112 | 17 | 271 | 4.8 | 14.5 | 0.00 | 0.89 | 0.03 | 71 | 1008.3 |
| 20260506111038 | 17 | 243 | 4.8 | 14.5 | 0.00 | 0.89 | 0.03 | 71 | 1008.2 |
| 20260506111004 | 17 | 178 | 4.8 | 14.5 | 0.00 | 0.89 | 0.03 | 72 | 1008.2 |
| 20260506110808 | 17 | 195 | 3.2 | 12.9 | 0.00 | 0.89 | 0.03 | 71 | 1008.2 |
| 20260506110711 | 16 | 216 | 4.8 | 12.9 | 0.00 | 0.89 | 0.03 | 72 | 1008.2 |
| 20260506110604 | 16 | 211 | 8.0 | 12.9 | 0.00 | 0.89 | 0.03 | 71 | 1008.2 |
| 20260506110504 | 16 | 171 | 8.0 | 12.9 | 0.00 | 0.89 | 0.03 | 70 | 1008.2 |
| 20260506110402 | 16 | 156 | 4.8 | 14.5 | 0.00 | 0.89 | 0.03 | 70 | 1008.2 |
| 20260506110300 | 16 | 161 | 3.2 | 19.3 | 0.00 | 0.89 | 0.03 | 72 | 1008.2 |
| 20260506110200 | 16 | 133 | 3.2 | 19.3 | 0.00 | 0.89 | 0.03 | 72 | 1008.2 |
| 20260506105956 | 16 | 216 | 4.8 | 19.3 | 0.00 | 0.89 | 0.03 | 72 | 1008.2 |
| 20260506105859 | 16 | 182 | 6.4 | 19.3 | 0.00 | 0.89 | 0.03 | 73 | 1008.3 |
| 20260506105757 | 16 | 169 | 6.4 | 19.3 | 0.00 | 0.89 | 0.03 | 71 | 1008.2 |
| 20260506105655 | 16 | 166 | 6.4 | 19.3 | 0.00 | 0.89 | 0.03 | 72 | 1008.2 |
| 20260506105555 | 16 | 155 | 6.4 | 19.3 | 0.00 | 0.89 | 0.03 | 72 | 1008.2 |
| 20260506105454 | 16 | 203 | 4.8 | 19.3 | 0.00 | 0.89 | 0.03 | 72 | 1008.3 |
| 20260506105352 | 16 | 175 | 3.2 | 14.5 | 0.00 | 0.89 | 0.03 | 73 | 1008.3 |
| 20260506105251 | 16 | 152 | 8.0 | 14.5 | 0.00 | 0.89 | 0.03 | 72 | 1008.2 |
| 20260506105150 | 16 | 147 | 8.0 | 14.5 | 0.00 | 0.89 | 0.03 | 72 | 1008.3 |
| 20260506105047 | 16 | 125 | 6.4 | 14.5 | 0.00 | 0.89 | 0.03 | 72 | 1008.3 |
| 20260506104946 | 16 | 131 | 6.4 | 14.5 | 0.00 | 0.89 | 0.03 | 72 | 1008.3 |
| 20260506104846 | 16 | 206 | 6.4 | 14.5 | 0.00 | 0.89 | 0.03 | 72 | 1008.3 |
| 20260506104741 | 16 | 176 | 6.4 | 12.9 | 0.00 | 0.89 | 0.03 | 72 | 1008.3 |
| 20260506104642 | 16 | 211 | 3.2 | 12.9 | 0.00 | 0.89 | 0.03 | 72 | 1008.3 |
| 20260506104539 | 16 | 151 | 4.8 | 12.9 | 0.00 | 0.89 | 0.03 | 73 | 1008.3 |
| 20260506104437 | 16 | 184 | 6.4 | 12.9 | 0.00 | 0.89 | 0.03 | 72 | 1008.3 |
| 20260506104335 | 16 | 149 | 8.0 | 12.9 | 0.00 | 0.89 | 0.03 | 72 | 1008.3 |
| 20260506104233 | 16 | 233 | 6.4 | 14.5 | 0.00 | 0.89 | 0.03 | 72 | 1008.4 |
| 20260506104132 | 16 | 201 | 3.2 | 14.5 | 0.00 | 0.89 | 0.03 | 74 | 1008.4 |
| 20260506104031 | 16 | 261 | 4.8 | 14.5 | 0.00 | 0.89 | 0.03 | 74 | 1008.4 |
| 20260506103930 | 16 | 133 | 6.4 | 14.5 | 0.00 | 0.89 | 0.03 | 74 | 1008.4 |
| 20260506103834 | 16 | 147 | 6.4 | 14.5 | 0.00 | 0.89 | 0.03 | 73 | 1008.4 |
| 20260506103732 | 16 | 154 | 6.4 | 14.5 | 0.00 | 0.89 | 0.03 | 74 | 1008.4 |
| 20260506103631 | 16 | 190 | 4.8 | 14.5 | 0.00 | 0.89 | 0.03 | 74 | 1008.4 |
| 20260506103531 | 16 | 187 | 6.4 | 14.5 | 0.00 | 0.89 | 0.03 | 74 | 1008.4 |
| 20260506103428 | 16 | 143 | 6.4 | 14.5 | 0.00 | 0.89 | 0.03 | 74 | 1008.4 |
| 20260506103328 | 16 | 189 | 6.4 | 14.5 | 0.00 | 0.89 | 0.03 | 74 | 1008.4 |
| 20260506103226 | 16 | 167 | 4.8 | 12.9 | 0.00 | 0.89 | 0.03 | 74 | 1008.4 |
| 20260506103124 | 15 | 228 | 6.4 | 12.9 | 0.00 | 0.89 | 0.03 | 74 | 1008.4 |
| 20260506103022 | 15 | 152 | 4.8 | 12.9 | 0.00 | 0.89 | 0.03 | 74 | 1008.4 |
| 20260506102921 | 15 | 155 | 6.4 | 14.5 | 0.00 | 0.89 | 0.03 | 74 | 1008.4 |
| 20260506102821 | 15 | 216 | 8.0 | 14.5 | 0.00 | 0.89 | 0.03 | 74 | 1008.4 |
| 20260506102720 | 16 | 157 | 4.8 | 14.5 | 0.00 | 0.89 | 0.03 | 74 | 1008.4 |
| 20260506102614 | 16 | 157 | 3.2 | 14.5 | 0.00 | 0.89 | 0.03 | 74 | 1008.5 |
| 20260506102512 | 16 | 195 | 3.2 | 14.5 | 0.00 | 0.89 | 0.03 | 75 | 1008.3 |
| 20260506102411 | 16 | 206 | 4.8 | 14.5 | 0.00 | 0.89 | 0.03 | 75 | 1008.4 |
| 20260506102315 | 15 | 203 | 6.4 | 14.5 | 0.00 | 0.89 | 0.03 | 75 | 1008.4 |
| 20260506102214 | 15 | 182 | 4.8 | 14.5 | 0.00 | 0.89 | 0.03 | 75 | 1008.4 |
| 20260506102111 | 15 | 160 | 6.4 | 14.5 | 0.00 | 0.89 | 0.03 | 76 | 1008.4 |
| 20260506102010 | 15 | 182 | 4.8 | 14.5 | 0.00 | 0.89 | 0.03 | 76 | 1008.4 |
| 20260506101909 | 15 | 198 | 6.4 | 14.5 | 0.00 | 0.89 | 0.03 | 76 | 1008.4 |
| 20260506101811 | 15 | 166 | 8.0 | 14.5 | 0.00 | 0.89 | 0.03 | 77 | 1008.3 |
| 20260506101706 | 15 | 191 | 8.0 | 14.5 | 0.00 | 0.89 | 0.03 | 76 | 1008.4 |
| 20260506101606 | 15 | 131 | 4.8 | 14.5 | 0.00 | 0.89 | 0.03 | 77 | 1008.4 |
| 20260506101506 | 15 | 178 | 6.4 | 9.7 | 0.00 | 0.89 | 0.03 | 77 | 1008.4 |
| 20260506101358 | 15 | 182 | 4.8 | 9.7 | 0.00 | 0.89 | 0.03 | 77 | 1008.4 |
| 20260506101159 | 15 | 144 | 4.8 | 12.9 | 0.00 | 0.89 | 0.03 | 76 | 1008.4 |
| 20260506101058 | 15 | 128 | 3.2 | 12.9 | 0.00 | 0.89 | 0.03 | 76 | 1008.3 |
| 20260506100958 | 15 | 160 | 3.2 | 12.9 | 0.00 | 0.89 | 0.03 | 77 | 1008.4 |
| 20260506100855 | 15 | 171 | 4.8 | 12.9 | 0.00 | 0.89 | 0.03 | 76 | 1008.4 |
| 20260506100754 | 15 | 216 | 4.8 | 12.9 | 0.00 | 0.89 | 0.03 | 75 | 1008.4 |
| 20260506100655 | 15 | 206 | 1.6 | 12.9 | 0.00 | 0.89 | 0.03 | 76 | 1008.4 |
| 20260506100552 | 15 | 149 | 0.0 | 12.9 | 0.00 | 0.89 | 0.03 | 77 | 1008.3 |
| 20260506100450 | 15 | 216 | 3.2 | 12.9 | 0.00 | 0.89 | 0.03 | 77 | 1008.4 |
| 20260506100350 | 15 | 216 | 3.2 | 12.9 | 0.00 | 0.89 | 0.03 | 77 | 1008.4 |
| 20260506100248 | 15 | 216 | 3.2 | 12.9 | 0.00 | 0.89 | 0.03 | 77 | 1008.4 |
| 20260506100155 | 15 | 144 | 3.2 | 11.3 | 0.00 | 0.89 | 0.03 | 76 | 1008.4 |
| 20260506100046 | 15 | 203 | 3.2 | 14.5 | 0.00 | 0.89 | 0.03 | 76 | 1008.4 |
| 20260506095954 | 15 | 203 | 4.8 | 14.5 | 0.00 | 0.89 | 0.03 | 76 | 1008.4 |
| 20260506095921 | 15 | 201 | 6.4 | 14.5 | 0.00 | 0.89 | 0.03 | 76 | 1008.4 |
| 20260506095744 | 15 | 201 | 4.8 | 14.5 | 0.00 | 0.89 | 0.03 | 75 | 1008.3 |
| 20260506095642 | 15 | 203 | 3.2 | 14.5 | 0.00 | 0.89 | 0.03 | 75 | 1008.4 |
| 20260506095541 | 15 | 211 | 6.4 | 14.5 | 0.00 | 0.89 | 0.03 | 75 | 1008.4 |
| 20260506095439 | 15 | 181 | 4.8 | 14.5 | 0.00 | 0.89 | 0.03 | 75 | 1008.4 |
| 20260506095338 | 15 | 174 | 3.2 | 14.5 | 0.00 | 0.89 | 0.03 | 76 | 1008.4 |
| 20260506095237 | 15 | 161 | 8.0 | 14.5 | 0.00 | 0.89 | 0.03 | 76 | 1008.4 |
| 20260506095136 | 15 | 159 | 8.0 | 14.5 | 0.00 | 0.89 | 0.03 | 75 | 1008.4 |
| 20260506095034 | 15 | 166 | 4.8 | 14.5 | 0.00 | 0.89 | 0.03 | 76 | 1008.4 |
| 20260506094933 | 15 | 147 | 3.2 | 12.9 | 0.00 | 0.89 | 0.03 | 75 | 1008.3 |
| 20260506094826 | 15 | 143 | 4.8 | 14.5 | 0.00 | 0.89 | 0.03 | 75 | 1008.3 |
| 20260506094724 | 15 | 172 | 4.8 | 14.5 | 0.00 | 0.89 | 0.03 | 75 | 1008.3 |
| 20260506094622 | 15 | 203 | 3.2 | 14.5 | 0.00 | 0.89 | 0.03 | 75 | 1008.4 |
| 20260506094522 | 15 | 211 | 4.8 | 14.5 | 0.00 | 0.89 | 0.03 | 76 | 1008.3 |
| 20260506094420 | 15 | 202 | 6.4 | 14.5 | 0.00 | 0.89 | 0.03 | 75 | 1008.4 |
| 20260506094319 | 15 | 216 | 6.4 | 14.5 | 0.00 | 0.89 | 0.03 | 75 | 1008.3 |
| 20260506094218 | 15 | 211 | 6.4 | 14.5 | 0.00 | 0.89 | 0.03 | 75 | 1008.4 |
| 20260506094116 | 15 | 233 | 4.8 | 14.5 | 0.00 | 0.89 | 0.03 | 75 | 1008.3 |
| 20260506094016 | 15 | 193 | 6.4 | 14.5 | 0.00 | 0.89 | 0.03 | 75 | 1008.4 |
| 20260506093914 | 15 | 171 | 8.0 | 14.5 | 0.00 | 0.89 | 0.03 | 75 | 1008.4 |
| 20260506093813 | 15 | 178 | 8.0 | 14.5 | 0.00 | 0.89 | 0.03 | 75 | 1008.4 |
| 20260506093712 | 15 | 278 | 8.0 | 16.1 | 0.00 | 0.89 | 0.03 | 74 | 1008.3 |
| 20260506093611 | 15 | 226 | 6.4 | 16.1 | 0.00 | 0.89 | 0.03 | 74 | 1008.4 |
| 20260506093509 | 15 | 211 | 6.4 | 16.1 | 0.00 | 0.89 | 0.03 | 74 | 1008.3 |
| 20260506093408 | 15 | 235 | 6.4 | 16.1 | 0.00 | 0.89 | 0.03 | 74 | 1008.3 |
| 20260506093306 | 15 | 187 | 6.4 | 16.1 | 0.00 | 0.89 | 0.03 | 75 | 1008.3 |
| 20260506093205 | 15 | 194 | 8.0 | 16.1 | 0.00 | 0.89 | 0.03 | 74 | 1008.3 |
| 20260506093104 | 15 | 172 | 8.0 | 16.1 | 0.00 | 0.89 | 0.03 | 74 | 1008.3 |
| 20260506093004 | 15 | 180 | 9.7 | 16.1 | 0.00 | 0.89 | 0.03 | 74 | 1008.3 |
| 20260506092902 | 15 | 203 | 8.0 | 16.1 | 0.00 | 0.89 | 0.03 | 74 | 1008.3 |
| 20260506092800 | 15 | 235 | 4.8 | 12.9 | 0.00 | 0.89 | 0.03 | 74 | 1008.3 |
| 20260506092659 | 15 | 145 | 3.2 | 12.9 | 0.00 | 0.89 | 0.03 | 75 | 1008.3 |
| 20260506092557 | 15 | 254 | 4.8 | 12.9 | 0.00 | 0.89 | 0.03 | 76 | 1008.3 |
| 20260506092456 | 15 | 271 | 6.4 | 12.9 | 0.00 | 0.89 | 0.03 | 76 | 1008.2 |
| 20260506092355 | 15 | 233 | 3.2 | 12.9 | 0.00 | 0.89 | 0.03 | 77 | 1008.3 |
| 20260506092151 | 15 | 248 | 1.6 | 8.0 | 0.00 | 0.89 | 0.03 | 77 | 1008.3 |
| 20260506092049 | 15 | 202 | 4.8 | 8.0 | 0.00 | 0.89 | 0.03 | 77 | 1008.3 |
| 20260506091946 | 15 | 202 | 4.8 | 8.0 | 0.00 | 0.89 | 0.03 | 77 | 1008.3 |
| 20260506091845 | 15 | 250 | 3.2 | 8.0 | 0.00 | 0.89 | 0.03 | 77 | 1008.4 |
| 20260506091642 | 14 | 145 | 1.6 | 8.0 | 0.00 | 0.89 | 0.03 | 78 | 1008.2 |
| 20260506091541 | 14 | 143 | 1.6 | 11.3 | 0.00 | 0.89 | 0.03 | 78 | 1008.3 |
| 20260506091442 | 14 | 149 | 1.6 | 11.3 | 0.00 | 0.89 | 0.03 | 78 | 1008.3 |
| 20260506091341 | 14 | 196 | 1.6 | 11.3 | 0.00 | 0.89 | 0.03 | 78 | 1008.3 |
| 20260506091237 | 14 | 233 | 3.2 | 11.3 | 0.00 | 0.89 | 0.03 | 78 | 1008.3 |
| 20260506091138 | 14 | 233 | 3.2 | 11.3 | 0.00 | 0.89 | 0.03 | 78 | 1008.2 |
| 20260506091035 | 14 | 201 | 3.2 | 11.3 | 0.00 | 0.89 | 0.03 | 78 | 1008.2 |
| 20260506090934 | 14 | 154 | 3.2 | 11.3 | 0.00 | 0.89 | 0.03 | 77 | 1008.3 |
| 20260506090834 | 14 | 182 | 6.4 | 11.3 | 0.00 | 0.89 | 0.03 | 77 | 1008.3 |
| 20260506090733 | 14 | 211 | 6.4 | 11.3 | 0.00 | 0.89 | 0.03 | 77 | 1008.3 |
| 20260506090633 | 14 | 220 | 3.2 | 11.3 | 0.00 | 0.89 | 0.03 | 78 | 1008.3 |
| 20260506090527 | 14 | 176 | 3.2 | 6.4 | 0.00 | 0.89 | 0.03 | 78 | 1008.3 |
| 20260506090426 | 14 | 216 | 3.2 | 6.4 | 0.00 | 0.89 | 0.03 | 78 | 1008.3 |
| 20260506090330 | 14 | 216 | 3.2 | 6.4 | 0.00 | 0.89 | 0.03 | 78 | 1008.3 |
| 20260506090226 | 14 | 201 | 3.2 | 6.4 | 0.00 | 0.89 | 0.03 | 79 | 1008.3 |
| 20260506090135 | 14 | 127 | 4.8 | 6.4 | 0.00 | 0.89 | 0.03 | 79 | 1008.2 |
| 20260506090030 | 14 | 145 | 3.2 | 6.4 | 0.00 | 0.89 | 0.03 | 79 | 1008.3 |
| 20260506085920 | 14 | 152 | 1.6 | 6.4 | 0.00 | 0.89 | 0.03 | 79 | 1008.2 |
| 20260506085823 | 14 | 155 | 1.6 | 6.4 | 0.00 | 0.89 | 0.03 | 78 | 1008.3 |
| 20260506085721 | 14 | 220 | 1.6 | 6.4 | 0.00 | 0.89 | 0.03 | 79 | 1008.3 |
| 20260506085616 | 14 | 220 | 3.2 | 6.4 | 0.00 | 0.89 | 0.03 | 78 | 1008.3 |
| 20260506085515 | 14 | 226 | 3.2 | 6.4 | 0.00 | 0.89 | 0.03 | 78 | 1008.3 |
| 20260506085413 | 14 | 216 | 1.6 | 6.4 | 0.00 | 0.89 | 0.03 | 80 | 1008.3 |
| 20260506085311 | 14 | 206 | 1.6 | 6.4 | 0.00 | 0.89 | 0.03 | 80 | 1008.3 |
| 20260506085212 | 14 | 206 | 1.6 | 6.4 | 0.00 | 0.89 | 0.03 | 79 | 1008.3 |
| 20260506085108 | 13 | 206 | 0.0 | 6.4 | 0.00 | 0.89 | 0.03 | 79 | 1008.3 |
| 20260506085008 | 13 | 206 | 0.0 | 6.4 | 0.00 | 0.89 | 0.03 | 79 | 1008.3 |
| 20260506084908 | 13 | 206 | 1.6 | 6.4 | 0.00 | 0.89 | 0.03 | 80 | 1008.3 |
| 20260506084805 | 13 | 201 | 3.2 | 6.4 | 0.00 | 0.89 | 0.03 | 80 | 1008.3 |
| 20260506084705 | 13 | 201 | 3.2 | 6.4 | 0.00 | 0.89 | 0.03 | 80 | 1008.3 |
| 20260506084603 | 13 | 201 | 1.6 | 6.4 | 0.00 | 0.89 | 0.03 | 80 | 1008.3 |
| 20260506084502 | 13 | 170 | 1.6 | 6.4 | 0.00 | 0.89 | 0.03 | 80 | 1008.3 |
| 20260506084401 | 13 | 141 | 3.2 | 6.4 | 0.00 | 0.89 | 0.03 | 80 | 1008.3 |
| 20260506084300 | 13 | 141 | 1.6 | 6.4 | 0.00 | 0.89 | 0.03 | 81 | 1008.3 |
| 20260506084159 | 13 | 163 | 1.6 | 6.4 | 0.00 | 0.89 | 0.03 | 81 | 1008.4 |
| 20260506084055 | 13 | 148 | 3.2 | 6.4 | 0.00 | 0.89 | 0.03 | 81 | 1008.3 |
| 20260506083955 | 13 | 162 | 3.2 | 6.4 | 0.00 | 0.89 | 0.03 | 81 | 1008.4 |
| 20260506083921 | 13 | 148 | 4.8 | 6.4 | 0.00 | 0.89 | 0.03 | 81 | 1008.3 |
| 20260506083849 | 13 | 216 | 4.8 | 12.9 | 0.00 | 0.89 | 0.03 | 80 | 1008.3 |
| 20260506083650 | 13 | 246 | 4.8 | 12.9 | 0.00 | 0.89 | 0.03 | 81 | 1008.4 |
| 20260506083549 | 13 | 216 | 4.8 | 12.9 | 0.00 | 0.89 | 0.03 | 81 | 1008.3 |
| 20260506083447 | 13 | 161 | 3.2 | 12.9 | 0.00 | 0.89 | 0.03 | 81 | 1008.3 |
| 20260506083347 | 13 | 211 | 4.8 | 12.9 | 0.00 | 0.89 | 0.03 | 82 | 1008.3 |
| 20260506083245 | 13 | 211 | 4.8 | 12.9 | 0.00 | 0.89 | 0.03 | 82 | 1008.2 |
| 20260506083142 | 13 | 216 | 3.2 | 12.9 | 0.00 | 0.89 | 0.03 | 82 | 1008.3 |
| 20260506083043 | 13 | 206 | 6.4 | 12.9 | 0.00 | 0.89 | 0.03 | 82 | 1008.4 |
| 20260506082941 | 13 | 188 | 6.4 | 12.9 | 0.00 | 0.89 | 0.03 | 81 | 1008.4 |
| 20260506082837 | 13 | 180 | 4.8 | 12.9 | 0.00 | 0.89 | 0.03 | 81 | 1008.4 |
| 20260506082638 | 13 | 185 | 3.2 | 9.7 | 0.00 | 0.89 | 0.03 | 82 | 1008.4 |
| 20260506082536 | 13 | 146 | 3.2 | 9.7 | 0.00 | 0.89 | 0.03 | 82 | 1008.3 |
| 20260506082435 | 13 | 184 | 3.2 | 9.7 | 0.00 | 0.89 | 0.03 | 82 | 1008.3 |
| 20260506082331 | 13 | 175 | 1.6 | 12.9 | 0.00 | 0.89 | 0.03 | 82 | 1008.3 |
| 20260506082131 | 13 | 206 | 4.8 | 12.9 | 0.00 | 0.89 | 0.03 | 82 | 1008.3 |
| 20260506082031 | 13 | 199 | 4.8 | 12.9 | 0.00 | 0.89 | 0.03 | 81 | 1008.3 |
| 20260506081925 | 13 | 193 | 1.6 | 12.9 | 0.00 | 0.89 | 0.03 | 82 | 1008.3 |
| 20260506081824 | 13 | 220 | 3.2 | 12.9 | 0.00 | 0.89 | 0.03 | 81 | 1008.3 |
| 20260506081727 | 13 | 220 | 4.8 | 12.9 | 0.00 | 0.89 | 0.03 | 81 | 1008.3 |
| 20260506081625 | 13 | 220 | 6.4 | 12.9 | 0.00 | 0.89 | 0.03 | 82 | 1008.3 |
| 20260506081520 | 13 | 216 | 6.4 | 12.9 | 0.00 | 0.89 | 0.03 | 81 | 1008.2 |
| 20260506081420 | 13 | 234 | 4.8 | 12.9 | 0.00 | 0.89 | 0.03 | 82 | 1008.3 |
| 20260506081321 | 13 | 250 | 4.8 | 12.9 | 0.00 | 0.89 | 0.03 | 82 | 1008.3 |
| 20260506081216 | 13 | 243 | 6.4 | 12.9 | 0.00 | 0.89 | 0.03 | 82 | 1008.3 |
| 20260506081119 | 13 | 203 | 6.4 | 11.3 | 0.00 | 0.89 | 0.03 | 82 | 1008.2 |
| 20260506081013 | 13 | 237 | 4.8 | 9.7 | 0.00 | 0.89 | 0.03 | 82 | 1008.2 |
| 20260506080912 | 13 | 182 | 3.2 | 9.7 | 0.00 | 0.89 | 0.03 | 82 | 1008.3 |
| 20260506080810 | 13 | 174 | 4.8 | 9.7 | 0.00 | 0.89 | 0.03 | 82 | 1008.2 |
| 20260506080709 | 13 | 168 | 3.2 | 9.7 | 0.00 | 0.89 | 0.03 | 82 | 1008.2 |
| 20260506080608 | 13 | 197 | 3.2 | 9.7 | 0.00 | 0.89 | 0.03 | 82 | 1008.2 |
| 20260506080507 | 13 | 200 | 6.4 | 9.7 | 0.00 | 0.89 | 0.03 | 81 | 1008.2 |
| 20260506080406 | 13 | 206 | 6.4 | 9.7 | 0.00 | 0.89 | 0.03 | 81 | 1008.3 |
| 20260506080304 | 13 | 169 | 6.4 | 9.7 | 0.00 | 0.89 | 0.03 | 81 | 1008.3 |
| 20260506080205 | 13 | 184 | 6.4 | 8.0 | 0.00 | 0.89 | 0.03 | 81 | 1008.2 |
| 20260506080105 | 13 | 172 | 3.2 | 8.0 | 0.00 | 0.89 | 0.03 | 81 | 1008.2 |
| 20260506073436 | 13 | 206 | 6.4 | 16.1 | 0.00 | 0.89 | 0.03 | 82 | 1008.0 |
| 20260506073403 | 13 | 206 | 8.0 | 16.1 | 0.00 | 0.89 | 0.03 | 82 | 1008.0 |
| 20260506073329 | 13 | 253 | 6.4 | 16.1 | 0.00 | 0.89 | 0.03 | 81 | 1008.0 |
| 20260506073129 | 12 | 251 | 4.8 | 11.3 | 0.00 | 0.89 | 0.03 | 82 | 1008.0 |
| 20260506073027 | 12 | 216 | 3.2 | 11.3 | 0.00 | 0.89 | 0.03 | 83 | 1008.0 |
| 20260506072926 | 12 | 216 | 1.6 | 11.3 | 0.00 | 0.89 | 0.03 | 83 | 1008.0 |
| 20260506072826 | 12 | 206 | 3.2 | 11.3 | 0.00 | 0.89 | 0.03 | 83 | 1007.9 |
| 20260506072623 | 12 | 197 | 3.2 | 11.3 | 0.00 | 0.89 | 0.03 | 84 | 1007.9 |
| 20260506072521 | 12 | 216 | 4.8 | 11.3 | 0.00 | 0.89 | 0.03 | 83 | 1007.9 |
| 20260506072420 | 12 | 236 | 6.4 | 11.3 | 0.00 | 0.89 | 0.03 | 83 | 1007.8 |
| 20260506072319 | 12 | 216 | 6.4 | 11.3 | 0.00 | 0.89 | 0.03 | 83 | 1007.9 |
| 20260506072118 | 12 | 237 | 6.4 | 11.3 | 0.00 | 0.89 | 0.03 | 83 | 1007.9 |
| 20260506072014 | 12 | 269 | 4.8 | 9.7 | 0.00 | 0.89 | 0.03 | 83 | 1007.8 |
| 20260506071923 | 12 | 264 | 4.8 | 9.7 | 0.00 | 0.89 | 0.03 | 84 | 1007.9 |
| 20260506071850 | 12 | 206 | 6.4 | 9.7 | 0.00 | 0.89 | 0.03 | 83 | 1007.8 |
| 20260506071711 | 12 | 199 | 4.8 | 9.7 | 0.00 | 0.89 | 0.03 | 83 | 1007.8 |
| 20260506071611 | 12 | 216 | 3.2 | 9.7 | 0.00 | 0.89 | 0.03 | 84 | 1007.8 |
| 20260506071502 | 12 | 216 | 4.8 | 9.7 | 0.00 | 0.89 | 0.03 | 84 | 1007.8 |
| 20260506071400 | 12 | 201 | 4.8 | 14.5 | 0.00 | 0.89 | 0.03 | 84 | 1007.8 |
| 20260506071259 | 12 | 137 | 3.2 | 14.5 | 0.00 | 0.89 | 0.03 | 83 | 1007.8 |
| 20260506071158 | 12 | 206 | 4.8 | 14.5 | 0.00 | 0.89 | 0.03 | 83 | 1007.9 |
| 20260506071059 | 12 | 263 | 6.4 | 14.5 | 0.00 | 0.89 | 0.03 | 83 | 1007.8 |
| 20260506070955 | 12 | 253 | 6.4 | 14.5 | 0.00 | 0.89 | 0.03 | 83 | 1007.8 |
| 20260506070854 | 12 | 249 | 4.8 | 14.5 | 0.00 | 0.89 | 0.03 | 83 | 1007.8 |
| 20260506070753 | 12 | 249 | 6.4 | 14.5 | 0.00 | 0.89 | 0.03 | 83 | 1007.8 |
| 20260506070651 | 12 | 239 | 8.0 | 14.5 | 0.00 | 0.89 | 0.03 | 83 | 1007.8 |
| 20260506070550 | 12 | 250 | 6.4 | 14.5 | 0.00 | 0.89 | 0.03 | 83 | 1007.8 |
| 20260506070449 | 12 | 229 | 3.2 | 14.5 | 0.00 | 0.89 | 0.03 | 84 | 1007.9 |
| 20260506070348 | 12 | 216 | 1.6 | 14.5 | 0.00 | 0.89 | 0.03 | 84 | 1007.8 |
| 20260506070246 | 12 | 220 | 3.2 | 14.5 | 0.00 | 0.89 | 0.03 | 83 | 1007.8 |
| 20260506070145 | 12 | 220 | 4.8 | 14.5 | 0.00 | 0.89 | 0.03 | 83 | 1007.7 |
| 20260506062448 | 11 | 239 | 4.8 | 9.7 | 0.00 | 0.89 | 0.03 | 88 | 1007.9 |
| 20260506062347 | 11 | 211 | 4.8 | 9.7 | 0.00 | 0.89 | 0.03 | 88 | 1007.9 |
| 20260506062245 | 11 | 200 | 4.8 | 9.7 | 0.00 | 0.89 | 0.03 | 88 | 1007.9 |
| 20260506062143 | 11 | 237 | 4.8 | 9.7 | 0.00 | 0.89 | 0.03 | 88 | 1008.0 |
| 20260506062044 | 11 | 216 | 3.2 | 6.4 | 0.00 | 0.89 | 0.03 | 88 | 1008.0 |
| 20260506061942 | 11 | 239 | 3.2 | 6.4 | 0.00 | 0.89 | 0.03 | 88 | 1008.0 |
| 20260506061907 | 11 | 203 | 1.6 | 6.4 | 0.00 | 0.89 | 0.03 | 88 | 1007.9 |
| 20260506061835 | 11 | 198 | 1.6 | 6.4 | 0.00 | 0.89 | 0.03 | 88 | 1008.0 |
| 20260506061633 | 11 | 198 | 3.2 | 6.4 | 0.00 | 0.89 | 0.03 | 88 | 1008.0 |
| 20260506061536 | 11 | 198 | 3.2 | 8.0 | 0.00 | 0.89 | 0.03 | 88 | 1008.0 |
| 20260506061430 | 11 | 191 | 3.2 | 8.0 | 0.00 | 0.89 | 0.03 | 88 | 1008.0 |
| 20260506061333 | 11 | 222 | 1.6 | 8.0 | 0.00 | 0.89 | 0.03 | 88 | 1008.0 |
| 20260506061233 | 11 | 231 | 3.2 | 8.0 | 0.00 | 0.89 | 0.03 | 88 | 1008.0 |
| 20260506061132 | 11 | 231 | 4.8 | 8.0 | 0.00 | 0.89 | 0.03 | 88 | 1008.0 |
| 20260506061029 | 11 | 239 | 3.2 | 8.0 | 0.00 | 0.89 | 0.03 | 88 | 1008.1 |
| 20260506060929 | 11 | 220 | 1.6 | 8.0 | 0.00 | 0.89 | 0.03 | 88 | 1008.0 |
| 20260506060827 | 11 | 198 | 3.2 | 8.0 | 0.00 | 0.89 | 0.03 | 88 | 1008.0 |
| 20260506060720 | 11 | 195 | 4.8 | 8.0 | 0.00 | 0.89 | 0.03 | 88 | 1008.1 |
| 20260506060619 | 11 | 216 | 4.8 | 8.0 | 0.00 | 0.89 | 0.03 | 88 | 1008.1 |
| 20260506060523 | 11 | 206 | 4.8 | 8.0 | 0.00 | 0.89 | 0.03 | 88 | 1008.1 |
| 20260506060422 | 11 | 216 | 3.2 | 8.0 | 0.00 | 0.89 | 0.03 | 88 | 1008.1 |
| 20260506060329 | 11 | 216 | 3.2 | 8.0 | 0.00 | 0.89 | 0.03 | 88 | 1008.1 |
| 20260506060217 | 11 | 179 | 1.6 | 4.8 | 0.00 | 0.89 | 0.03 | 88 | 1008.2 |
| 20260506060116 | 11 | 200 | 1.6 | 4.8 | 0.00 | 0.89 | 0.03 | 88 | 1008.1 |
| 20260506051411 | 11 | 261 | 6.4 | 17.7 | 0.00 | 0.89 | 0.03 | 89 | 1008.1 |
| 20260506051307 | 11 | 230 | 8.0 | 17.7 | 0.00 | 0.89 | 0.03 | 89 | 1008.1 |
| 20260506051207 | 11 | 224 | 6.4 | 17.7 | 0.00 | 0.89 | 0.03 | 89 | 1008.2 |
| 20260506051105 | 11 | 253 | 6.4 | 17.7 | 0.00 | 0.89 | 0.03 | 89 | 1008.2 |
| 20260506051006 | 11 | 241 | 6.4 | 17.7 | 0.00 | 0.89 | 0.03 | 89 | 1008.1 |
| 20260506050906 | 11 | 247 | 8.0 | 17.7 | 0.00 | 0.89 | 0.03 | 89 | 1008.1 |
| 20260506050803 | 11 | 276 | 9.7 | 17.7 | 0.00 | 0.89 | 0.03 | 89 | 1008.1 |
| 20260506050659 | 11 | 231 | 11.3 | 17.7 | 0.00 | 0.89 | 0.03 | 89 | 1008.1 |
| 20260506050602 | 11 | 216 | 11.3 | 17.7 | 0.00 | 0.89 | 0.03 | 90 | 1008.1 |
| 20260506050501 | 11 | 243 | 9.7 | 17.7 | 0.00 | 0.89 | 0.03 | 90 | 1008.1 |
| 20260506050359 | 11 | 266 | 8.0 | 14.5 | 0.00 | 0.89 | 0.03 | 90 | 1008.1 |
| 20260506050258 | 11 | 245 | 6.4 | 14.5 | 0.00 | 0.89 | 0.03 | 90 | 1008.2 |
| 20260506050157 | 11 | 237 | 6.4 | 14.5 | 0.00 | 0.89 | 0.03 | 90 | 1008.1 |
| 20260506045043 | 11 | 253 | 6.4 | 16.1 | 0.00 | 0.89 | 0.03 | 91 | 1008.1 |
| 20260506044942 | 11 | 206 | 9.7 | 16.1 | 0.00 | 0.89 | 0.03 | 91 | 1008.1 |
| 20260506044840 | 11 | 270 | 11.3 | 16.1 | 0.00 | 0.89 | 0.03 | 91 | 1008.1 |
| 20260506044738 | 11 | 260 | 8.0 | 16.1 | 0.00 | 0.89 | 0.03 | 91 | 1008.1 |
| 20260506044638 | 11 | 222 | 6.4 | 14.5 | 0.03 | 0.89 | 0.03 | 91 | 1008.0 |
| 20260506044536 | 11 | 265 | 8.0 | 16.1 | 0.03 | 0.89 | 0.03 | 91 | 1008.1 |
| 20260506044435 | 11 | 239 | 6.4 | 16.1 | 0.03 | 0.89 | 0.03 | 91 | 1008.0 |
| 20260506044334 | 11 | 260 | 6.4 | 16.1 | 0.03 | 0.89 | 0.03 | 91 | 1008.0 |
| 20260506044232 | 11 | 221 | 6.4 | 16.1 | 0.03 | 0.89 | 0.03 | 91 | 1008.0 |
| 20260506044133 | 11 | 238 | 8.0 | 17.7 | 0.03 | 0.89 | 0.03 | 91 | 1008.0 |
| 20260506044029 | 11 | 255 | 9.7 | 17.7 | 0.03 | 0.89 | 0.03 | 91 | 1008.0 |
| 20260506043928 | 11 | 247 | 9.7 | 17.7 | 0.03 | 0.89 | 0.03 | 91 | 1007.9 |
| 20260506043837 | 11 | 222 | 6.4 | 17.7 | 0.03 | 0.89 | 0.03 | 92 | 1007.9 |
| 20260506043804 | 11 | 228 | 9.7 | 17.7 | 0.03 | 0.89 | 0.03 | 92 | 1007.8 |
| 20260506043729 | 11 | 223 | 11.3 | 17.7 | 0.03 | 0.89 | 0.03 | 91 | 1007.9 |
| 20260506043523 | 11 | 257 | 6.4 | 17.7 | 0.03 | 0.89 | 0.03 | 91 | 1007.8 |
| 20260506043422 | 11 | 211 | 9.7 | 17.7 | 0.03 | 0.89 | 0.03 | 91 | 1007.8 |
| 20260506043320 | 10 | 224 | 9.7 | 17.7 | 0.03 | 0.89 | 0.03 | 92 | 1007.8 |
| 20260506043219 | 10 | 249 | 6.4 | 17.7 | 0.03 | 0.89 | 0.03 | 92 | 1007.8 |
| 20260506043118 | 10 | 254 | 6.4 | 11.3 | 0.03 | 0.89 | 0.03 | 92 | 1007.8 |
| 20260506043016 | 10 | 253 | 6.4 | 11.3 | 0.03 | 0.89 | 0.03 | 92 | 1007.8 |
| 20260506042915 | 10 | 274 | 6.4 | 12.9 | 0.03 | 0.89 | 0.03 | 92 | 1007.8 |
| 20260506042814 | 10 | 244 | 6.4 | 16.1 | 0.03 | 0.89 | 0.03 | 92 | 1007.7 |
| 20260506042713 | 10 | 222 | 8.0 | 16.1 | 0.03 | 0.89 | 0.03 | 92 | 1007.8 |
| 20260506042611 | 10 | 216 | 8.0 | 16.1 | 0.03 | 0.89 | 0.03 | 92 | 1007.8 |
| 20260506042512 | 10 | 256 | 8.0 | 16.1 | 0.03 | 0.89 | 0.03 | 92 | 1007.8 |
| 20260506042409 | 10 | 241 | 6.4 | 16.1 | 0.03 | 0.89 | 0.03 | 92 | 1007.7 |
| 20260506042307 | 10 | 241 | 4.8 | 16.1 | 0.03 | 0.89 | 0.03 | 92 | 1007.8 |
| 20260506042211 | 10 | 249 | 6.4 | 16.1 | 0.03 | 0.89 | 0.03 | 92 | 1007.8 |
| 20260506042104 | 10 | 257 | 8.0 | 17.7 | 0.03 | 0.89 | 0.03 | 92 | 1007.7 |
| 20260506042004 | 10 | 253 | 8.0 | 19.3 | 0.03 | 0.89 | 0.03 | 92 | 1007.7 |
| 20260506041902 | 10 | 228 | 8.0 | 19.3 | 0.03 | 0.89 | 0.03 | 92 | 1007.8 |
| 20260506041800 | 10 | 248 | 9.7 | 19.3 | 0.03 | 0.89 | 0.03 | 92 | 1007.8 |
| 20260506041659 | 10 | 235 | 6.4 | 19.3 | 0.03 | 0.89 | 0.03 | 92 | 1007.8 |
| 20260506041558 | 10 | 237 | 4.8 | 19.3 | 0.03 | 0.89 | 0.03 | 92 | 1007.8 |
| 20260506041456 | 10 | 193 | 6.4 | 19.3 | 0.03 | 0.89 | 0.03 | 92 | 1007.7 |
| 20260506041355 | 10 | 240 | 9.7 | 19.3 | 0.03 | 0.89 | 0.03 | 92 | 1007.7 |
| 20260506041309 | 10 | 259 | 9.7 | 19.3 | 0.03 | 0.89 | 0.03 | 92 | 1007.6 |
| 20260506041236 | 10 | 246 | 8.0 | 19.3 | 0.03 | 0.89 | 0.03 | 92 | 1007.6 |
| 20260506041052 | 10 | 255 | 9.7 | 16.1 | 0.03 | 0.89 | 0.03 | 92 | 1007.6 |
| 20260506040950 | 10 | 245 | 9.7 | 16.1 | 0.03 | 0.89 | 0.03 | 92 | 1007.5 |
| 20260506040849 | 10 | 243 | 6.4 | 16.1 | 0.03 | 0.89 | 0.03 | 92 | 1007.5 |
| 20260506040748 | 10 | 249 | 6.4 | 16.1 | 0.03 | 0.89 | 0.03 | 92 | 1007.4 |
| 20260506040646 | 10 | 272 | 6.4 | 16.1 | 0.03 | 0.89 | 0.03 | 92 | 1007.5 |
| 20260506040541 | 10 | 216 | 6.4 | 16.1 | 0.03 | 0.89 | 0.03 | 92 | 1007.5 |
| 20260506040441 | 10 | 251 | 6.4 | 12.9 | 0.03 | 0.89 | 0.03 | 92 | 1007.5 |
| 20260506040340 | 10 | 224 | 6.4 | 12.9 | 0.03 | 0.89 | 0.03 | 92 | 1007.5 |
| 20260506040240 | 11 | 230 | 6.4 | 12.9 | 0.03 | 0.89 | 0.03 | 92 | 1007.6 |
| 20260506040138 | 10 | 230 | 9.7 | 12.9 | 0.03 | 0.89 | 0.03 | 92 | 1007.6 |
| 20260506040036 | 11 | 247 | 8.0 | 12.9 | 0.03 | 0.89 | 0.03 | 92 | 1007.6 |
| 20260506035937 | 10 | 239 | 6.4 | 12.9 | 0.03 | 0.89 | 0.03 | 92 | 1007.6 |
| 20260506035836 | 10 | 226 | 8.0 | 12.9 | 0.03 | 0.89 | 0.03 | 92 | 1007.6 |
| 20260506035734 | 11 | 216 | 6.4 | 12.9 | 0.03 | 0.89 | 0.03 | 92 | 1007.6 |
| 20260506035633 | 11 | 233 | 4.8 | 12.9 | 0.03 | 0.89 | 0.03 | 92 | 1007.5 |
| 20260506035532 | 11 | 261 | 3.2 | 12.9 | 0.03 | 0.89 | 0.03 | 92 | 1007.6 |
| 20260506035431 | 11 | 206 | 3.2 | 12.9 | 0.03 | 0.89 | 0.03 | 92 | 1007.5 |
| 20260506035329 | 11 | 228 | 3.2 | 12.9 | 0.03 | 0.89 | 0.03 | 92 | 1007.6 |
| 20260506035228 | 10 | 246 | 1.6 | 12.9 | 0.03 | 0.89 | 0.03 | 92 | 1007.6 |
| 20260506035127 | 10 | 239 | 1.6 | 12.9 | 0.03 | 0.89 | 0.03 | 92 | 1007.6 |
| 20260506035025 | 10 | 211 | 3.2 | 12.9 | 0.03 | 0.89 | 0.03 | 92 | 1007.6 |
| 20260506034924 | 11 | 211 | 6.4 | 12.9 | 0.03 | 0.89 | 0.03 | 92 | 1007.6 |
| 20260506034823 | 11 | 202 | 4.8 | 12.9 | 0.03 | 0.89 | 0.03 | 92 | 1007.6 |
| 20260506034722 | 10 | 230 | 3.2 | 8.0 | 0.03 | 0.89 | 0.03 | 92 | 1007.6 |
| 20260506034620 | 10 | 248 | 3.2 | 8.0 | 0.00 | 0.86 | 0.00 | 92 | 1007.6 |
| 20260506034518 | 10 | 216 | 3.2 | 8.0 | 0.00 | 0.86 | 0.00 | 92 | 1007.6 |
| 20260506034412 | 10 | 216 | 3.2 | 8.0 | 0.00 | 0.86 | 0.00 | 92 | 1007.6 |
| 20260506034316 | 10 | 216 | 4.8 | 8.0 | 0.00 | 0.86 | 0.00 | 92 | 1007.6 |
| 20260506034215 | 10 | 201 | 3.2 | 8.0 | 0.00 | 0.86 | 0.00 | 92 | 1007.6 |
| 20260506034114 | 10 | 216 | 3.2 | 8.0 | 0.00 | 0.86 | 0.00 | 92 | 1007.5 |
| 20260506034012 | 10 | 206 | 3.2 | 8.0 | 0.00 | 0.86 | 0.00 | 92 | 1007.6 |
| 20260506033910 | 10 | 201 | 1.6 | 8.0 | 0.00 | 0.86 | 0.00 | 92 | 1007.5 |
| 20260506033810 | 10 | 201 | 0.0 | 8.0 | 0.00 | 0.86 | 0.00 | 92 | 1007.6 |
| 20260506033708 | 10 | 174 | 3.2 | 8.0 | 0.00 | 0.86 | 0.00 | 92 | 1007.5 |
| 20260506033608 | 10 | 174 | 3.2 | 8.0 | 0.00 | 0.86 | 0.00 | 92 | 1007.5 |
| 20260506033506 | 10 | 222 | 1.6 | 8.0 | 0.00 | 0.86 | 0.00 | 92 | 1007.5 |
| 20260506033405 | 10 | 222 | 1.6 | 8.0 | 0.00 | 0.86 | 0.00 | 92 | 1007.5 |
| 20260506033304 | 10 | 245 | 3.2 | 8.0 | 0.00 | 0.86 | 0.00 | 92 | 1007.5 |
| 20260506033201 | 10 | 201 | 3.2 | 8.0 | 0.00 | 0.86 | 0.00 | 92 | 1007.6 |
| 20260506033104 | 10 | 178 | 1.6 | 8.0 | 0.00 | 0.86 | 0.00 | 92 | 1007.6 |
| 20260506033000 | 10 | 220 | 1.6 | 6.4 | 0.00 | 0.86 | 0.00 | 92 | 1007.6 |
| 20260506032859 | 10 | 247 | 1.6 | 6.4 | 0.00 | 0.86 | 0.00 | 92 | 1007.7 |
| 20260506032754 | 10 | 243 | 1.6 | 6.4 | 0.00 | 0.86 | 0.00 | 92 | 1007.7 |
| 20260506032655 | 10 | 239 | 1.6 | 6.4 | 0.00 | 0.86 | 0.00 | 92 | 1007.7 |
| 20260506032455 | 10 | 248 | 3.2 | 9.7 | 0.00 | 0.86 | 0.00 | 92 | 1007.7 |
| 20260506032349 | 10 | 251 | 3.2 | 9.7 | 0.00 | 0.86 | 0.00 | 92 | 1007.8 |
| 20260506032247 | 10 | 239 | 1.6 | 9.7 | 0.00 | 0.86 | 0.00 | 91 | 1007.8 |
| 20260506032146 | 10 | 255 | 1.6 | 9.7 | 0.00 | 0.86 | 0.00 | 91 | 1007.8 |
| 20260506032047 | 10 | 230 | 3.2 | 9.7 | 0.00 | 0.86 | 0.00 | 91 | 1007.7 |
| 20260506031951 | 10 | 230 | 3.2 | 11.3 | 0.00 | 0.86 | 0.00 | 91 | 1007.7 |
| 20260506031846 | 10 | 206 | 3.2 | 11.3 | 0.00 | 0.86 | 0.00 | 91 | 1007.7 |
| 20260506031744 | 10 | 206 | 6.4 | 11.3 | 0.00 | 0.86 | 0.00 | 91 | 1007.8 |
| 20260506031639 | 10 | 243 | 4.8 | 11.3 | 0.00 | 0.86 | 0.00 | 91 | 1007.8 |
| 20260506031537 | 10 | 236 | 1.6 | 11.3 | 0.00 | 0.86 | 0.00 | 91 | 1007.8 |
| 20260506031436 | 10 | 220 | 1.6 | 11.3 | 0.00 | 0.86 | 0.00 | 91 | 1007.7 |
| 20260506031335 | 10 | 220 | 1.6 | 11.3 | 0.00 | 0.86 | 0.00 | 91 | 1007.7 |
| 20260506031234 | 10 | 216 | 1.6 | 11.3 | 0.00 | 0.86 | 0.00 | 92 | 1007.7 |
| 20260506031137 | 10 | 216 | 4.8 | 11.3 | 0.00 | 0.86 | 0.00 | 91 | 1007.8 |
| 20260506031032 | 10 | 251 | 4.8 | 11.3 | 0.00 | 0.86 | 0.00 | 91 | 1007.7 |
| 20260506030932 | 10 | 206 | 3.2 | 11.3 | 0.00 | 0.86 | 0.00 | 91 | 1007.7 |
| 20260506030834 | 10 | 216 | 3.2 | 11.3 | 0.00 | 0.86 | 0.00 | 91 | 1007.7 |
| 20260506030732 | 10 | 244 | 4.8 | 11.3 | 0.00 | 0.86 | 0.00 | 91 | 1007.7 |
| 20260506030625 | 10 | 250 | 4.8 | 11.3 | 0.00 | 0.86 | 0.00 | 91 | 1007.7 |
| 20260506030523 | 10 | 216 | 3.2 | 11.3 | 0.00 | 0.86 | 0.00 | 91 | 1007.7 |
| 20260506030423 | 10 | 203 | 3.2 | 11.3 | 0.00 | 0.86 | 0.00 | 91 | 1007.7 |
| 20260506030321 | 10 | 202 | 3.2 | 11.3 | 0.00 | 0.86 | 0.00 | 91 | 1007.7 |
| 20260506030220 | 10 | 216 | 4.8 | 11.3 | 0.00 | 0.86 | 0.00 | 91 | 1007.7 |
| 20260506030124 | 10 | 220 | 3.2 | 12.9 | 0.00 | 0.86 | 0.00 | 91 | 1007.6 |
| 20260506030013 | 10 | 216 | 3.2 | 12.9 | 0.00 | 0.86 | 0.00 | 91 | 1007.7 |
| 20260506025915 | 10 | 177 | 3.2 | 12.9 | 0.00 | 0.86 | 0.00 | 91 | 1007.6 |
| 20260506025814 | 10 | 197 | 3.2 | 12.9 | 0.00 | 0.86 | 0.00 | 91 | 1007.6 |
| 20260506025713 | 10 | 176 | 3.2 | 12.9 | 0.00 | 0.86 | 0.00 | 91 | 1007.7 |
| 20260506025611 | 10 | 233 | 4.8 | 12.9 | 0.00 | 0.86 | 0.00 | 91 | 1007.8 |
| 20260506025511 | 10 | 245 | 4.8 | 12.9 | 0.00 | 0.86 | 0.00 | 91 | 1007.7 |
| 20260506025410 | 10 | 203 | 6.4 | 12.9 | 0.00 | 0.86 | 0.00 | 91 | 1007.7 |
| 20260506025309 | 10 | 191 | 6.4 | 12.9 | 0.00 | 0.86 | 0.00 | 91 | 1007.7 |
| 20260506025208 | 10 | 206 | 3.2 | 12.9 | 0.00 | 0.86 | 0.00 | 91 | 1007.7 |
| 20260506025106 | 10 | 206 | 4.8 | 12.9 | 0.00 | 0.86 | 0.00 | 91 | 1007.7 |
| 20260506025004 | 10 | 220 | 6.4 | 12.9 | 0.00 | 0.86 | 0.00 | 91 | 1007.7 |
| 20260506024912 | 10 | 216 | 4.8 | 12.9 | 0.00 | 0.86 | 0.00 | 91 | 1007.7 |
| 20260506024802 | 10 | 222 | 4.8 | 9.7 | 0.00 | 0.86 | 0.00 | 91 | 1007.7 |
| 20260506024701 | 10 | 216 | 4.8 | 9.7 | 0.00 | 0.86 | 0.00 | 91 | 1007.7 |
| 20260506024559 | 10 | 191 | 4.8 | 9.7 | 0.00 | 0.86 | 0.00 | 91 | 1007.7 |
| 20260506024453 | 10 | 199 | 3.2 | 9.7 | 0.00 | 0.86 | 0.00 | 91 | 1007.7 |
| 20260506024352 | 10 | 216 | 3.2 | 9.7 | 0.00 | 0.86 | 0.00 | 91 | 1007.7 |
| 20260506024251 | 10 | 203 | 3.2 | 9.7 | 0.00 | 0.86 | 0.00 | 91 | 1007.7 |
| 20260506024149 | 10 | 170 | 4.8 | 9.7 | 0.00 | 0.86 | 0.00 | 91 | 1007.7 |
| 20260506023949 | 10 | 220 | 3.2 | 9.7 | 0.00 | 0.86 | 0.00 | 91 | 1007.7 |
| 20260506023850 | 10 | 206 | 3.2 | 9.7 | 0.00 | 0.86 | 0.00 | 91 | 1007.7 |
| 20260506023753 | 10 | 247 | 4.8 | 9.7 | 0.00 | 0.86 | 0.00 | 91 | 1007.6 |
| 20260506023721 | 10 | 211 | 3.2 | 9.7 | 0.00 | 0.86 | 0.00 | 91 | 1007.7 |
| 20260506023646 | 10 | 224 | 3.2 | 11.3 | 0.00 | 0.86 | 0.00 | 91 | 1007.7 |
| 20260506023440 | 10 | 203 | 3.2 | 11.3 | 0.00 | 0.86 | 0.00 | 91 | 1007.7 |
| 20260506023341 | 10 | 211 | 3.2 | 11.3 | 0.00 | 0.86 | 0.00 | 91 | 1007.7 |
| 20260506023240 | 10 | 211 | 1.6 | 11.3 | 0.00 | 0.86 | 0.00 | 91 | 1007.7 |
| 20260506023136 | 10 | 211 | 1.6 | 11.3 | 0.00 | 0.86 | 0.00 | 91 | 1007.6 |
| 20260506022937 | 10 | 197 | 3.2 | 11.3 | 0.00 | 0.86 | 0.00 | 91 | 1007.7 |
| 20260506022841 | 10 | 232 | 3.2 | 11.3 | 0.00 | 0.86 | 0.00 | 91 | 1007.7 |
| 20260506022734 | 10 | 216 | 4.8 | 11.3 | 0.00 | 0.86 | 0.00 | 91 | 1007.7 |
| 20260506022632 | 10 | 223 | 3.2 | 11.3 | 0.00 | 0.86 | 0.00 | 91 | 1007.6 |
| 20260506022531 | 10 | 216 | 3.2 | 8.0 | 0.00 | 0.86 | 0.00 | 91 | 1007.7 |
| 20260506022434 | 10 | 211 | 3.2 | 8.0 | 0.00 | 0.86 | 0.00 | 91 | 1007.7 |
| 20260506022329 | 10 | 216 | 3.2 | 8.0 | 0.00 | 0.86 | 0.00 | 91 | 1007.7 |
| 20260506022227 | 10 | 222 | 4.8 | 8.0 | 0.00 | 0.86 | 0.00 | 91 | 1007.7 |
| 20260506022126 | 10 | 220 | 4.8 | 8.0 | 0.00 | 0.86 | 0.00 | 91 | 1007.7 |
| 20260506022026 | 10 | 206 | 3.2 | 6.4 | 0.00 | 0.86 | 0.00 | 91 | 1007.7 |
| 20260506021922 | 10 | 239 | 3.2 | 12.9 | 0.00 | 0.86 | 0.00 | 91 | 1007.7 |
| 20260506021823 | 10 | 237 | 4.8 | 12.9 | 0.00 | 0.86 | 0.00 | 91 | 1007.6 |
| 20260506021722 | 10 | 216 | 3.2 | 12.9 | 0.00 | 0.86 | 0.00 | 91 | 1007.7 |
| 20260506021621 | 10 | 216 | 3.2 | 12.9 | 0.00 | 0.86 | 0.00 | 91 | 1007.7 |
| 20260506021520 | 10 | 203 | 3.2 | 12.9 | 0.00 | 0.86 | 0.00 | 91 | 1007.7 |
| 20260506021418 | 10 | 203 | 3.2 | 12.9 | 0.00 | 0.86 | 0.00 | 91 | 1007.7 |
| 20260506021317 | 10 | 172 | 3.2 | 12.9 | 0.00 | 0.86 | 0.00 | 91 | 1007.7 |
| 20260506021214 | 10 | 216 | 4.8 | 12.9 | 0.00 | 0.86 | 0.00 | 91 | 1007.8 |
| 20260506021113 | 10 | 180 | 6.4 | 12.9 | 0.00 | 0.86 | 0.00 | 91 | 1007.8 |
| 20260506021011 | 10 | 206 | 3.2 | 12.9 | 0.00 | 0.86 | 0.00 | 91 | 1007.8 |
| 20260506020912 | 10 | 200 | 3.2 | 9.7 | 0.00 | 0.86 | 0.00 | 91 | 1007.8 |
| 20260506020810 | 10 | 216 | 3.2 | 9.7 | 0.00 | 0.86 | 0.00 | 91 | 1007.8 |
| 20260506020709 | 10 | 216 | 3.2 | 9.7 | 0.00 | 0.86 | 0.00 | 91 | 1007.9 |
| 20260506020606 | 10 | 206 | 1.6 | 9.7 | 0.00 | 0.86 | 0.00 | 91 | 1007.8 |
| 20260506020505 | 10 | 237 | 1.6 | 14.5 | 0.00 | 0.86 | 0.00 | 91 | 1007.9 |
| 20260506020403 | 10 | 185 | 1.6 | 14.5 | 0.00 | 0.86 | 0.00 | 92 | 1007.8 |
| 20260506020258 | 10 | 211 | 3.2 | 14.5 | 0.00 | 0.86 | 0.00 | 92 | 1007.8 |
| 20260506020200 | 10 | 211 | 4.8 | 14.5 | 0.00 | 0.86 | 0.00 | 92 | 1007.8 |
| 20260506020104 | 10 | 216 | 4.8 | 14.5 | 0.00 | 0.86 | 0.00 | 91 | 1007.8 |
| 20260506015959 | 10 | 216 | 4.8 | 14.5 | 0.00 | 0.86 | 0.00 | 91 | 1007.8 |
| 20260506015854 | 10 | 195 | 6.4 | 14.5 | 0.00 | 0.86 | 0.00 | 92 | 1007.8 |
| 20260506015750 | 10 | 180 | 8.0 | 14.5 | 0.00 | 0.86 | 0.00 | 91 | 1007.8 |
| 20260506015648 | 10 | 200 | 8.0 | 14.5 | 0.00 | 0.86 | 0.00 | 91 | 1007.9 |
| 20260506015547 | 10 | 193 | 6.4 | 14.5 | 0.00 | 0.86 | 0.00 | 92 | 1007.8 |
| 20260506015446 | 10 | 176 | 6.4 | 12.9 | 0.00 | 0.86 | 0.00 | 92 | 1007.8 |
| 20260506015344 | 10 | 188 | 6.4 | 12.9 | 0.00 | 0.86 | 0.00 | 92 | 1007.8 |
| 20260506015243 | 10 | 206 | 6.4 | 12.9 | 0.00 | 0.86 | 0.00 | 92 | 1007.8 |
| 20260506015142 | 10 | 189 | 6.4 | 12.9 | 0.00 | 0.86 | 0.00 | 92 | 1007.8 |
| 20260506015041 | 10 | 195 | 4.8 | 12.9 | 0.00 | 0.86 | 0.00 | 92 | 1007.8 |
| 20260506014934 | 10 | 203 | 3.2 | 9.7 | 0.00 | 0.86 | 0.00 | 92 | 1007.8 |
| 20260506014832 | 10 | 199 | 4.8 | 9.7 | 0.00 | 0.86 | 0.00 | 92 | 1007.7 |
| 20260506014737 | 10 | 206 | 4.8 | 9.7 | 0.00 | 0.86 | 0.00 | 92 | 1007.8 |
| 20260506014704 | 10 | 206 | 4.8 | 9.7 | 0.00 | 0.86 | 0.00 | 92 | 1007.8 |
| 20260506014633 | 10 | 211 | 3.2 | 11.3 | 0.00 | 0.86 | 0.00 | 92 | 1007.8 |
| 20260506014427 | 10 | 230 | 3.2 | 11.3 | 0.00 | 0.86 | 0.00 | 92 | 1007.7 |
| 20260506014328 | 10 | 220 | 3.2 | 11.3 | 0.00 | 0.86 | 0.00 | 92 | 1007.8 |
| 20260506014201 | 10 | 172 | 3.2 | 11.3 | 0.00 | 0.86 | 0.00 | 92 | 1007.8 |
| 20260506014128 | 10 | 206 | 4.8 | 11.3 | 0.00 | 0.86 | 0.00 | 92 | 1007.8 |
| 20260506013923 | 10 | 234 | 4.8 | 11.3 | 0.00 | 0.86 | 0.00 | 92 | 1007.8 |
| 20260506013819 | 10 | 206 | 3.2 | 11.3 | 0.00 | 0.86 | 0.00 | 92 | 1007.8 |
| 20260506013718 | 10 | 237 | 4.8 | 11.3 | 0.00 | 0.86 | 0.00 | 92 | 1007.8 |
| 20260506013617 | 10 | 216 | 4.8 | 11.3 | 0.00 | 0.86 | 0.00 | 92 | 1007.8 |
| 20260506013515 | 10 | 230 | 4.8 | 9.7 | 0.00 | 0.86 | 0.00 | 92 | 1007.8 |
| 20260506013418 | 10 | 216 | 3.2 | 12.9 | 0.00 | 0.86 | 0.00 | 92 | 1007.8 |
| 20260506013314 | 10 | 216 | 3.2 | 12.9 | 0.00 | 0.86 | 0.00 | 92 | 1007.8 |
| 20260506013213 | 10 | 216 | 4.8 | 12.9 | 0.00 | 0.86 | 0.00 | 92 | 1007.8 |
| 20260506013112 | 10 | 216 | 3.2 | 12.9 | 0.00 | 0.86 | 0.00 | 92 | 1007.8 |
| 20260506013010 | 10 | 260 | 3.2 | 12.9 | 0.00 | 0.86 | 0.00 | 92 | 1007.8 |
| 20260506012910 | 10 | 216 | 3.2 | 12.9 | 0.00 | 0.86 | 0.00 | 92 | 1007.8 |
| 20260506012809 | 10 | 216 | 3.2 | 12.9 | 0.00 | 0.86 | 0.00 | 92 | 1007.8 |
| 20260506012708 | 10 | 241 | 4.8 | 12.9 | 0.00 | 0.86 | 0.00 | 92 | 1007.8 |
| 20260506012605 | 10 | 216 | 3.2 | 12.9 | 0.00 | 0.86 | 0.00 | 92 | 1007.8 |
| 20260506012504 | 10 | 239 | 4.8 | 12.9 | 0.00 | 0.86 | 0.00 | 92 | 1007.8 |
| 20260506012403 | 10 | 216 | 6.4 | 9.7 | 0.00 | 0.86 | 0.00 | 92 | 1007.8 |
| 20260506012259 | 11 | 206 | 4.8 | 9.7 | 0.00 | 0.86 | 0.00 | 92 | 1007.8 |
| 20260506012159 | 11 | 211 | 4.8 | 9.7 | 0.00 | 0.86 | 0.00 | 92 | 1007.8 |
| 20260506012056 | 11 | 188 | 3.2 | 8.0 | 0.00 | 0.86 | 0.00 | 92 | 1007.8 |
| 20260506011956 | 11 | 201 | 3.2 | 12.9 | 0.00 | 0.86 | 0.00 | 92 | 1007.8 |
| 20260506011855 | 11 | 175 | 1.6 | 12.9 | 0.00 | 0.86 | 0.00 | 92 | 1007.8 |
| 20260506011753 | 11 | 206 | 1.6 | 12.9 | 0.00 | 0.86 | 0.00 | 92 | 1007.8 |
| 20260506011705 | 11 | 198 | 1.6 | 12.9 | 0.00 | 0.86 | 0.00 | 92 | 1007.8 |
| 20260506011633 | 11 | 198 | 3.2 | 12.9 | 0.00 | 0.86 | 0.00 | 92 | 1007.9 |
| 20260506011451 | 11 | 216 | 3.2 | 12.9 | 0.00 | 0.86 | 0.00 | 92 | 1007.8 |
| 20260506011351 | 11 | 235 | 3.2 | 12.9 | 0.00 | 0.86 | 0.00 | 92 | 1007.9 |
| 20260506011249 | 11 | 216 | 4.8 | 12.9 | 0.00 | 0.86 | 0.00 | 92 | 1007.9 |
| 20260506011147 | 11 | 216 | 8.0 | 12.9 | 0.00 | 0.86 | 0.00 | 92 | 1007.9 |
| 20260506011045 | 11 | 225 | 6.4 | 12.9 | 0.00 | 0.86 | 0.00 | 91 | 1007.9 |
| 20260506010945 | 11 | 241 | 4.8 | 12.9 | 0.00 | 0.86 | 0.00 | 91 | 1008.0 |
| 20260506010843 | 11 | 216 | 4.8 | 12.9 | 0.00 | 0.86 | 0.00 | 91 | 1008.0 |
| 20260506010742 | 11 | 216 | 4.8 | 12.9 | 0.00 | 0.86 | 0.00 | 91 | 1007.9 |
| 20260506010701 | 11 | 188 | 4.8 | 9.7 | 0.00 | 0.86 | 0.00 | 91 | 1008.0 |
| 20260506010631 | 11 | 199 | 3.2 | 9.7 | 0.00 | 0.86 | 0.00 | 91 | 1008.0 |
| 20260506010439 | 11 | 211 | 1.6 | 6.4 | 0.00 | 0.86 | 0.00 | 91 | 1008.0 |
| 20260506010338 | 11 | 206 | 3.2 | 6.4 | 0.00 | 0.86 | 0.00 | 91 | 1008.0 |
| 20260506010237 | 11 | 206 | 3.2 | 6.4 | 0.00 | 0.86 | 0.00 | 91 | 1008.0 |
| 20260506010136 | 11 | 239 | 3.2 | 6.4 | 0.00 | 0.86 | 0.00 | 91 | 1008.0 |
| 20260506010027 | 11 | 211 | 0.0 | 6.4 | 0.00 | 0.86 | 0.00 | 91 | 1008.0 |
| 20260506005927 | 11 | 202 | 3.2 | 11.3 | 0.00 | 0.86 | 0.00 | 92 | 1008.0 |
| 20260506005826 | 11 | 202 | 3.2 | 11.3 | 0.00 | 0.86 | 0.00 | 92 | 1007.9 |
| 20260506005723 | 11 | 211 | 1.6 | 11.3 | 0.00 | 0.86 | 0.00 | 92 | 1008.0 |
| 20260506005622 | 11 | 221 | 1.6 | 11.3 | 0.00 | 0.86 | 0.00 | 92 | 1008.0 |
| 20260506005415 | 11 | 184 | 3.2 | 11.3 | 0.00 | 0.86 | 0.00 | 91 | 1008.0 |
| 20260506005314 | 11 | 216 | 3.2 | 11.3 | 0.00 | 0.86 | 0.00 | 91 | 1008.0 |
| 20260506005212 | 11 | 201 | 3.2 | 11.3 | 0.00 | 0.86 | 0.00 | 92 | 1008.0 |
| 20260506005111 | 10 | 178 | 4.8 | 11.3 | 0.00 | 0.86 | 0.00 | 91 | 1007.9 |
| 20260506004911 | 10 | 203 | 1.6 | 6.4 | 0.00 | 0.86 | 0.00 | 92 | 1008.0 |
| 20260506004809 | 11 | 211 | 0.0 | 6.4 | 0.00 | 0.86 | 0.00 | 92 | 1008.0 |
| 20260506004707 | 10 | 241 | 0.0 | 6.4 | 0.00 | 0.86 | 0.00 | 91 | 1008.0 |
| 20260506004636 | 10 | 241 | 0.0 | 6.4 | 0.00 | 0.86 | 0.00 | 91 | 1008.0 |
| 20260506004457 | 10 | 241 | 3.2 | 6.4 | 0.00 | 0.86 | 0.00 | 91 | 1008.1 |
| 20260506004356 | 10 | 241 | 3.2 | 6.4 | 0.00 | 0.86 | 0.00 | 91 | 1008.0 |
| 20260506004255 | 10 | 231 | 3.2 | 6.4 | 0.00 | 0.86 | 0.00 | 91 | 1008.0 |
| 20260506004154 | 10 | 220 | 3.2 | 6.4 | 0.00 | 0.86 | 0.00 | 91 | 1008.1 |
| 20260506004053 | 10 | 241 | 3.2 | 6.4 | 0.00 | 0.86 | 0.00 | 91 | 1008.1 |
| 20260506003951 | 10 | 216 | 3.2 | 6.4 | 0.00 | 0.86 | 0.00 | 91 | 1008.0 |
| 20260506003851 | 10 | 230 | 3.2 | 6.4 | 0.00 | 0.86 | 0.00 | 91 | 1008.0 |
| 20260506003749 | 10 | 248 | 3.2 | 6.4 | 0.00 | 0.86 | 0.00 | 91 | 1008.0 |
| 20260506003650 | 10 | 257 | 3.2 | 6.4 | 0.00 | 0.86 | 0.00 | 91 | 1008.0 |
| 20260506003549 | 10 | 216 | 3.2 | 6.4 | 0.00 | 0.86 | 0.00 | 91 | 1008.0 |
| 20260506003446 | 10 | 216 | 3.2 | 6.4 | 0.00 | 0.86 | 0.00 | 91 | 1008.0 |
| 20260506003343 | 10 | 216 | 4.8 | 6.4 | 0.00 | 0.86 | 0.00 | 91 | 1008.1 |
| 20260506003244 | 10 | 216 | 3.2 | 12.9 | 0.00 | 0.86 | 0.00 | 91 | 1008.1 |
| 20260506003142 | 10 | 221 | 1.6 | 12.9 | 0.00 | 0.86 | 0.00 | 91 | 1008.0 |
| 20260506003041 | 10 | 247 | 3.2 | 12.9 | 0.00 | 0.86 | 0.00 | 91 | 1008.2 |
| 20260506002939 | 10 | 211 | 3.2 | 12.9 | 0.00 | 0.86 | 0.00 | 91 | 1008.2 |
| 20260506002838 | 11 | 203 | 3.2 | 12.9 | 0.00 | 0.86 | 0.00 | 91 | 1008.1 |
| 20260506002737 | 11 | 233 | 3.2 | 12.9 | 0.00 | 0.86 | 0.00 | 91 | 1008.2 |
| 20260506002635 | 11 | 234 | 4.8 | 12.9 | 0.00 | 0.86 | 0.00 | 91 | 1008.2 |
| 20260506002534 | 11 | 216 | 4.8 | 12.9 | 0.00 | 0.86 | 0.00 | 91 | 1008.2 |
| 20260506002433 | 11 | 222 | 6.4 | 12.9 | 0.00 | 0.86 | 0.00 | 92 | 1008.2 |
| 20260506002332 | 11 | 201 | 8.0 | 12.9 | 0.00 | 0.86 | 0.00 | 92 | 1008.2 |
| 20260506002230 | 11 | 236 | 6.4 | 14.5 | 0.00 | 0.86 | 0.00 | 92 | 1008.2 |
| 20260506002128 | 11 | 216 | 4.8 | 16.1 | 0.00 | 0.86 | 0.00 | 92 | 1008.3 |
| 20260506002029 | 11 | 203 | 4.8 | 16.1 | 0.00 | 0.86 | 0.00 | 92 | 1008.2 |
| 20260506001927 | 11 | 206 | 6.4 | 16.1 | 0.00 | 0.86 | 0.00 | 92 | 1008.3 |
| 20260506001826 | 11 | 224 | 4.8 | 16.1 | 0.00 | 0.86 | 0.00 | 92 | 1008.3 |
| 20260506001725 | 11 | 216 | 4.8 | 16.1 | 0.00 | 0.86 | 0.00 | 92 | 1008.3 |
| 20260506001623 | 11 | 183 | 6.4 | 16.1 | 0.00 | 0.86 | 0.00 | 92 | 1008.3 |
| 20260506001522 | 11 | 216 | 6.4 | 16.1 | 0.00 | 0.86 | 0.00 | 92 | 1008.3 |
| 20260506001421 | 11 | 201 | 8.0 | 16.1 | 0.00 | 0.86 | 0.00 | 92 | 1008.3 |
| 20260506001319 | 11 | 232 | 8.0 | 16.1 | 0.00 | 0.86 | 0.00 | 92 | 1008.3 |
| 20260506001218 | 11 | 245 | 4.8 | 16.1 | 0.00 | 0.86 | 0.00 | 92 | 1008.3 |
| 20260506001145 | 11 | 245 | 3.2 | 14.5 | 0.00 | 0.86 | 0.00 | 92 | 1008.3 |
| 20260506001112 | 11 | 224 | 6.4 | 14.5 | 0.00 | 0.86 | 0.00 | 92 | 1008.3 |
| 20260506000913 | 11 | 247 | 6.4 | 14.5 | 0.00 | 0.86 | 0.00 | 92 | 1008.3 |
| 20260506000814 | 11 | 257 | 4.8 | 14.5 | 0.00 | 0.86 | 0.00 | 92 | 1008.3 |
| 20260506000711 | 11 | 211 | 4.8 | 8.0 | 0.00 | 0.86 | 0.00 | 92 | 1008.3 |
| 20260506000609 | 11 | 200 | 3.2 | 6.4 | 0.00 | 0.86 | 0.00 | 92 | 1008.3 |
| 20260506000509 | 11 | 216 | 3.2 | 6.4 | 0.00 | 0.86 | 0.00 | 92 | 1008.3 |
| 20260506000406 | 11 | 216 | 3.2 | 6.4 | 0.00 | 0.86 | 0.00 | 92 | 1008.3 |
| 20260506000306 | 11 | 188 | 1.6 | 4.8 | 0.00 | 0.86 | 0.00 | 92 | 1008.3 |
| 20260506000205 | 11 | 211 | 1.6 | 4.8 | 0.00 | 0.86 | 0.00 | 92 | 1008.2 |
| 20260506000104 | 11 | 225 | 1.6 | 4.8 | 0.00 | 0.86 | 0.00 | 92 | 1008.2 |
| 20260506000006 | 11 | 225 | 1.6 | 4.8 | 0.00 | 0.86 | 0.00 | 92 | 1008.3 |
| 20260505235859 | 11 | 225 | 1.6 | 6.4 | 0.00 | 0.86 | 0.00 | 92 | 1008.3 |
| 20260505235758 | 11 | 225 | 1.6 | 6.4 | 0.00 | 0.86 | 0.00 | 92 | 1008.3 |
| 20260505235657 | 11 | 225 | 3.2 | 6.4 | 0.00 | 0.86 | 0.00 | 92 | 1008.3 |
| 20260505235555 | 11 | 231 | 1.6 | 6.4 | 0.00 | 0.86 | 0.00 | 92 | 1008.4 |
| 20260505235350 | 11 | 229 | 3.2 | 8.0 | 0.00 | 0.86 | 0.00 | 92 | 1008.4 |
| 20260505235245 | 11 | 229 | 1.6 | 8.0 | 0.00 | 0.86 | 0.00 | 92 | 1008.3 |
| 20260505235146 | 11 | 228 | 1.6 | 9.7 | 0.00 | 0.86 | 0.00 | 92 | 1008.3 |
| 20260505235045 | 11 | 222 | 3.2 | 9.7 | 0.00 | 0.86 | 0.00 | 92 | 1008.3 |
| 20260505234939 | 11 | 221 | 1.6 | 9.7 | 0.00 | 0.86 | 0.00 | 92 | 1008.4 |
| 20260505234837 | 11 | 222 | 3.2 | 9.7 | 0.00 | 0.86 | 0.00 | 92 | 1008.4 |
| 20260505234736 | 11 | 241 | 4.8 | 9.7 | 0.00 | 0.86 | 0.00 | 92 | 1008.3 |
| 20260505234635 | 11 | 242 | 6.4 | 9.7 | 0.00 | 0.86 | 0.00 | 92 | 1008.4 |
| 20260505234534 | 11 | 241 | 6.4 | 9.7 | 0.00 | 0.86 | 0.00 | 92 | 1008.4 |
| 20260505234433 | 11 | 238 | 6.4 | 9.7 | 0.00 | 0.86 | 0.00 | 92 | 1008.4 |
| 20260505234331 | 11 | 239 | 4.8 | 9.7 | 0.00 | 0.86 | 0.00 | 92 | 1008.4 |
| 20260505234230 | 11 | 262 | 3.2 | 9.7 | 0.00 | 0.86 | 0.00 | 92 | 1008.5 |
| 20260505234129 | 11 | 241 | 3.2 | 8.0 | 0.00 | 0.86 | 0.00 | 92 | 1008.5 |
| 20260505234027 | 11 | 222 | 4.8 | 8.0 | 0.00 | 0.86 | 0.00 | 92 | 1008.5 |
| 20260505233925 | 11 | 237 | 3.2 | 8.0 | 0.00 | 0.86 | 0.00 | 92 | 1008.6 |
| 20260505233825 | 11 | 249 | 4.8 | 8.0 | 0.00 | 0.86 | 0.00 | 92 | 1008.5 |
| 20260505233724 | 11 | 221 | 3.2 | 6.4 | 0.00 | 0.86 | 0.00 | 92 | 1008.5 |
| 20260505233622 | 11 | 239 | 3.2 | 6.4 | 0.00 | 0.86 | 0.00 | 92 | 1008.5 |
| 20260505233521 | 11 | 234 | 3.2 | 6.4 | 0.00 | 0.86 | 0.00 | 92 | 1008.5 |
| 20260505233415 | 11 | 239 | 4.8 | 6.4 | 0.00 | 0.86 | 0.00 | 92 | 1008.5 |
| 20260505233314 | 11 | 243 | 4.8 | 8.0 | 0.00 | 0.86 | 0.00 | 92 | 1008.5 |
| 20260505233212 | 11 | 253 | 3.2 | 8.0 | 0.00 | 0.86 | 0.00 | 92 | 1008.4 |
| 20260505233139 | 11 | 237 | 1.6 | 8.0 | 0.00 | 0.86 | 0.00 | 92 | 1008.5 |
| 20260505233106 | 11 | 264 | 3.2 | 8.0 | 0.00 | 0.86 | 0.00 | 93 | 1008.4 |
| 20260505232909 | 11 | 229 | 3.2 | 8.0 | 0.00 | 0.86 | 0.00 | 93 | 1008.5 |
| 20260505232808 | 11 | 229 | 3.2 | 8.0 | 0.00 | 0.86 | 0.00 | 93 | 1008.5 |
| 20260505232705 | 10 | 211 | 3.2 | 8.0 | 0.00 | 0.86 | 0.00 | 93 | 1008.5 |
| 20260505232604 | 11 | 241 | 3.2 | 8.0 | 0.00 | 0.86 | 0.00 | 93 | 1008.4 |
| 20260505232502 | 10 | 247 | 3.2 | 8.0 | 0.00 | 0.86 | 0.00 | 93 | 1008.4 |
| 20260505232401 | 10 | 203 | 1.6 | 8.0 | 0.00 | 0.86 | 0.00 | 93 | 1008.4 |
| 20260505232259 | 10 | 202 | 3.2 | 8.0 | 0.00 | 0.86 | 0.00 | 93 | 1008.4 |
| 20260505232158 | 10 | 237 | 3.2 | 8.0 | 0.00 | 0.86 | 0.00 | 93 | 1008.4 |
| 20260505232058 | 10 | 239 | 3.2 | 8.0 | 0.00 | 0.86 | 0.00 | 93 | 1008.4 |
| 20260505231855 | 10 | 216 | 1.6 | 8.0 | 0.00 | 0.86 | 0.00 | 93 | 1008.5 |
| 20260505231754 | 10 | 216 | 1.6 | 8.0 | 0.00 | 0.86 | 0.00 | 93 | 1008.5 |
| 20260505231653 | 10 | 216 | 1.6 | 8.0 | 0.00 | 0.86 | 0.00 | 93 | 1008.4 |
| 20260505231549 | 10 | 229 | 1.6 | 8.0 | 0.00 | 0.86 | 0.00 | 93 | 1008.4 |
| 20260505231348 | 10 | 233 | 3.2 | 8.0 | 0.00 | 0.86 | 0.00 | 93 | 1008.4 |
| 20260505231247 | 10 | 230 | 3.2 | 8.0 | 0.00 | 0.86 | 0.00 | 93 | 1008.3 |
| 20260505231143 | 10 | 246 | 3.2 | 6.4 | 0.00 | 0.86 | 0.00 | 93 | 1008.3 |
| 20260505231044 | 10 | 249 | 1.6 | 6.4 | 0.00 | 0.86 | 0.00 | 93 | 1008.4 |
| 20260505230841 | 10 | 241 | 1.6 | 6.4 | 0.00 | 0.86 | 0.00 | 93 | 1008.3 |
| 20260505230737 | 10 | 249 | 1.6 | 6.4 | 0.00 | 0.86 | 0.00 | 93 | 1008.3 |
| 20260505230638 | 10 | 257 | 3.2 | 6.4 | 0.00 | 0.86 | 0.00 | 93 | 1008.3 |
| 20260505230536 | 10 | 257 | 3.2 | 6.4 | 0.00 | 0.86 | 0.00 | 93 | 1008.4 |
| 20260505230439 | 10 | 266 | 3.2 | 6.4 | 0.00 | 0.86 | 0.00 | 93 | 1008.3 |
| 20260505230335 | 10 | 278 | 3.2 | 6.4 | 0.00 | 0.86 | 0.00 | 93 | 1008.3 |
| 20260505230244 | 10 | 246 | 3.2 | 6.4 | 0.00 | 0.86 | 0.00 | 93 | 1008.4 |
| 20260505230130 | 10 | 240 | 3.2 | 6.4 | 0.00 | 0.86 | 0.00 | 93 | 1008.4 |
| 20260505230028 | 10 | 240 | 3.2 | 6.4 | 0.00 | 0.86 | 0.00 | 93 | 1008.3 |
| 20260505225932 | 10 | 260 | 1.6 | 4.8 | 0.00 | 0.86 | 0.00 | 93 | 1008.3 |
| 20260505225829 | 10 | 259 | 3.2 | 4.8 | 0.00 | 0.86 | 0.00 | 93 | 1008.4 |
| 20260505225726 | 10 | 248 | 3.2 | 4.8 | 0.00 | 0.86 | 0.00 | 93 | 1008.3 |
| 20260505225627 | 10 | 248 | 3.2 | 4.8 | 0.00 | 0.86 | 0.00 | 93 | 1008.4 |
| 20260505225522 | 10 | 216 | 1.6 | 4.8 | 0.00 | 0.86 | 0.00 | 93 | 1008.4 |
| 20260505225419 | 10 | 216 | 0.0 | 6.4 | 0.00 | 0.86 | 0.00 | 93 | 1008.4 |
| 20260505225317 | 10 | 216 | 1.6 | 6.4 | 0.00 | 0.86 | 0.00 | 93 | 1008.4 |
| 20260505225216 | 10 | 216 | 1.6 | 6.4 | 0.00 | 0.86 | 0.00 | 93 | 1008.4 |
| 20260505225114 | 10 | 216 | 1.6 | 6.4 | 0.00 | 0.86 | 0.00 | 93 | 1008.4 |
| 20260505225010 | 10 | 216 | 1.6 | 6.4 | 0.00 | 0.86 | 0.00 | 93 | 1008.4 |
| 20260505224909 | 10 | 216 | 1.6 | 6.4 | 0.00 | 0.86 | 0.00 | 93 | 1008.4 |
| 20260505224808 | 10 | 216 | 0.0 | 6.4 | 0.00 | 0.86 | 0.00 | 93 | 1008.3 |
| 20260505224708 | 10 | 216 | 3.2 | 6.4 | 0.00 | 0.86 | 0.00 | 93 | 1008.3 |
| 20260505224606 | 10 | 216 | 1.6 | 6.4 | 0.00 | 0.86 | 0.00 | 93 | 1008.3 |
| 20260505224504 | 10 | 216 | 0.0 | 4.8 | 0.00 | 0.86 | 0.00 | 93 | 1008.3 |
| 20260505224405 | 10 | 216 | 0.0 | 3.2 | 0.00 | 0.86 | 0.00 | 93 | 1008.3 |
| 20260505224252 | 10 | 216 | 0.0 | 3.2 | 0.00 | 0.86 | 0.00 | 93 | 1008.3 |
| 20260505224155 | 10 | 216 | 0.0 | 3.2 | 0.00 | 0.86 | 0.00 | 93 | 1008.3 |
| 20260505224053 | 10 | 216 | 0.0 | 3.2 | 0.00 | 0.86 | 0.00 | 93 | 1008.3 |
| 20260505223851 | 10 | 216 | 0.0 | 3.2 | 0.00 | 0.86 | 0.00 | 93 | 1008.3 |
| 20260505223749 | 10 | 216 | 1.6 | 3.2 | 0.00 | 0.86 | 0.00 | 93 | 1008.3 |
| 20260505223651 | 10 | 216 | 0.0 | 3.2 | 0.00 | 0.86 | 0.00 | 93 | 1008.3 |
| 20260505223618 | 10 | 216 | 0.0 | 1.6 | 0.00 | 0.86 | 0.00 | 93 | 1008.4 |
| 20260505223547 | 10 | 216 | 0.0 | 1.6 | 0.00 | 0.86 | 0.00 | 93 | 1008.4 |
| 20260505223345 | 10 | 216 | 0.0 | 1.6 | 0.00 | 0.86 | 0.00 | 93 | 1008.4 |
| 20260505223243 | 10 | 216 | 0.0 | 1.6 | 0.00 | 0.86 | 0.00 | 93 | 1008.4 |
| 20260505223141 | 10 | 216 | 0.0 | 1.6 | 0.00 | 0.86 | 0.00 | 93 | 1008.5 |
| 20260505223035 | 10 | 216 | 0.0 | 1.6 | 0.00 | 0.86 | 0.00 | 93 | 1008.4 |
| 20260505222833 | 10 | 216 | 0.0 | 1.6 | 0.00 | 0.86 | 0.00 | 93 | 1008.4 |
| 20260505222736 | 10 | 216 | 0.0 | 1.6 | 0.00 | 0.86 | 0.00 | 93 | 1008.4 |
| 20260505222634 | 10 | 216 | 0.0 | 1.6 | 0.00 | 0.86 | 0.00 | 93 | 1008.4 |
| 20260505222532 | 10 | 216 | 0.0 | 1.6 | 0.00 | 0.86 | 0.00 | 93 | 1008.4 |
| 20260505222326 | 10 | 216 | 0.0 | 1.6 | 0.00 | 0.86 | 0.00 | 93 | 1008.3 |
| 20260505222225 | 10 | 216 | 0.0 | 1.6 | 0.00 | 0.86 | 0.00 | 93 | 1008.4 |
| 20260505222124 | 10 | 216 | 0.0 | 1.6 | 0.00 | 0.86 | 0.00 | 93 | 1008.4 |
| 20260505222023 | 10 | 216 | 0.0 | 0.0 | 0.00 | 0.86 | 0.00 | 93 | 1008.3 |
| 20260505221919 | 10 | 216 | 0.0 | 0.0 | 0.00 | 0.86 | 0.00 | 93 | 1008.3 |
| 20260505221825 | 10 | 216 | 0.0 | 0.0 | 0.00 | 0.86 | 0.00 | 93 | 1008.3 |
| 20260505221719 | 10 | 216 | 0.0 | 0.0 | 0.00 | 0.86 | 0.00 | 93 | 1008.4 |
| 20260505221627 | 10 | 216 | 0.0 | 0.0 | 0.00 | 0.86 | 0.00 | 93 | 1008.4 |
| 20260505221515 | 10 | 216 | 0.0 | 0.0 | 0.00 | 0.86 | 0.00 | 93 | 1008.3 |
| 20260505221414 | 10 | 216 | 0.0 | 0.0 | 0.00 | 0.86 | 0.00 | 93 | 1008.3 |
| 20260505221313 | 10 | 216 | 0.0 | 0.0 | 0.00 | 0.86 | 0.00 | 93 | 1008.3 |
| 20260505221212 | 10 | 216 | 0.0 | 0.0 | 0.00 | 0.86 | 0.00 | 93 | 1008.3 |
| 20260505221110 | 10 | 216 | 0.0 | 0.0 | 0.00 | 0.86 | 0.00 | 93 | 1008.3 |
| 20260505221009 | 10 | 216 | 0.0 | 0.0 | 0.00 | 0.86 | 0.00 | 93 | 1008.2 |
| 20260505220906 | 10 | 216 | 0.0 | 0.0 | 0.00 | 0.86 | 0.00 | 93 | 1008.3 |
| 20260505220809 | 10 | 216 | 0.0 | 0.0 | 0.00 | 0.86 | 0.00 | 93 | 1008.2 |
| 20260505220704 | 10 | 216 | 0.0 | 1.6 | 0.00 | 0.86 | 0.00 | 93 | 1008.3 |
| 20260505220606 | 10 | 216 | 0.0 | 1.6 | 0.00 | 0.86 | 0.00 | 93 | 1008.3 |
| 20260505220504 | 10 | 216 | 0.0 | 1.6 | 0.00 | 0.86 | 0.00 | 93 | 1008.3 |
| 20260505220401 | 10 | 216 | 0.0 | 1.6 | 0.00 | 0.86 | 0.00 | 93 | 1008.4 |
| 20260505220300 | 10 | 216 | 0.0 | 1.6 | 0.00 | 0.86 | 0.00 | 93 | 1008.3 |
| 20260505220158 | 10 | 216 | 0.0 | 1.6 | 0.00 | 0.86 | 0.00 | 93 | 1008.4 |
| 20260505220105 | 10 | 216 | 0.0 | 1.6 | 0.00 | 0.86 | 0.00 | 93 | 1008.4 |
| 20260505215951 | 10 | 216 | 0.0 | 1.6 | 0.00 | 0.86 | 0.86 | 93 | 1008.5 |
| 20260505215849 | 10 | 216 | 0.0 | 1.6 | 0.00 | 0.86 | 0.86 | 93 | 1008.5 |
| 20260505215750 | 10 | 216 | 0.0 | 1.6 | 0.00 | 0.86 | 0.86 | 93 | 1008.5 |
| 20260505215647 | 10 | 216 | 0.0 | 1.6 | 0.00 | 0.86 | 0.86 | 93 | 1008.5 |
| 20260505215612 | 10 | 216 | 0.0 | 3.2 | 0.00 | 0.86 | 0.86 | 93 | 1008.5 |
| 20260505215536 | 10 | 216 | 0.0 | 3.2 | 0.00 | 0.86 | 0.86 | 93 | 1008.5 |
| 20260505215343 | 10 | 216 | 0.0 | 3.2 | 0.00 | 0.86 | 0.86 | 93 | 1008.4 |
| 20260505215242 | 10 | 216 | 0.0 | 3.2 | 0.00 | 0.86 | 0.86 | 93 | 1008.4 |
| 20260505215140 | 10 | 216 | 0.0 | 3.2 | 0.00 | 0.86 | 0.86 | 93 | 1008.4 |
| 20260505215100 | 10 | 216 | 0.0 | 3.2 | 0.00 | 0.86 | 0.86 | 93 | 1008.5 |
| 20260505215031 | 10 | 216 | 0.0 | 3.2 | 0.00 | 0.86 | 0.86 | 93 | 1008.4 |
| 20260505214832 | 10 | 216 | 0.0 | 3.2 | 0.00 | 0.86 | 0.86 | 93 | 1008.4 |
| 20260505214732 | 10 | 216 | 1.6 | 3.2 | 0.00 | 0.86 | 0.86 | 93 | 1008.5 |
| 20260505214631 | 10 | 216 | 1.6 | 3.2 | 0.00 | 0.86 | 0.86 | 93 | 1008.5 |
| 20260505214531 | 10 | 216 | 0.0 | 3.2 | 0.00 | 0.86 | 0.86 | 93 | 1008.5 |
| 20260505214322 | 10 | 216 | 0.0 | 3.2 | 0.00 | 0.86 | 0.86 | 93 | 1008.5 |
| 20260505214222 | 10 | 216 | 1.6 | 3.2 | 0.00 | 0.86 | 0.86 | 93 | 1008.4 |
| 20260505214113 | 10 | 216 | 3.2 | 4.8 | 0.00 | 0.86 | 0.86 | 93 | 1008.5 |
| 20260505214012 | 10 | 216 | 1.6 | 4.8 | 0.00 | 0.86 | 0.86 | 93 | 1008.5 |
| 20260505213809 | 10 | 216 | 1.6 | 4.8 | 0.00 | 0.86 | 0.86 | 93 | 1008.5 |
| 20260505213709 | 10 | 216 | 1.6 | 4.8 | 0.00 | 0.86 | 0.86 | 93 | 1008.5 |
| 20260505213607 | 10 | 216 | 1.6 | 4.8 | 0.00 | 0.86 | 0.86 | 93 | 1008.6 |
| 20260505213505 | 10 | 216 | 1.6 | 4.8 | 0.00 | 0.86 | 0.86 | 93 | 1008.5 |
| 20260505213405 | 10 | 216 | 1.6 | 4.8 | 0.00 | 0.86 | 0.86 | 93 | 1008.4 |
| 20260505213307 | 10 | 216 | 1.6 | 4.8 | 0.00 | 0.86 | 0.86 | 93 | 1008.5 |
| 20260505213203 | 10 | 216 | 0.0 | 4.8 | 0.00 | 0.86 | 0.86 | 93 | 1008.5 |
| 20260505213102 | 10 | 216 | 0.0 | 4.8 | 0.00 | 0.86 | 0.86 | 93 | 1008.6 |
| 20260505213000 | 10 | 216 | 1.6 | 4.8 | 0.00 | 0.86 | 0.86 | 93 | 1008.5 |
| 20260505212905 | 10 | 216 | 1.6 | 4.8 | 0.00 | 0.86 | 0.86 | 93 | 1008.6 |
| 20260505212756 | 10 | 216 | 1.6 | 4.8 | 0.00 | 0.86 | 0.86 | 93 | 1008.6 |
| 20260505212655 | 10 | 224 | 3.2 | 4.8 | 0.00 | 0.86 | 0.86 | 93 | 1008.6 |
| 20260505212554 | 10 | 211 | 1.6 | 4.8 | 0.00 | 0.86 | 0.86 | 93 | 1008.7 |
| 20260505212454 | 10 | 221 | 3.2 | 4.8 | 0.00 | 0.86 | 0.86 | 93 | 1008.6 |
| 20260505212353 | 10 | 231 | 1.6 | 4.8 | 0.00 | 0.86 | 0.86 | 93 | 1008.7 |
| 20260505212250 | 10 | 320 | 0.0 | 3.2 | 0.00 | 0.86 | 0.86 | 93 | 1008.7 |
| 20260505212150 | 10 | 320 | 0.0 | 3.2 | 0.00 | 0.86 | 0.86 | 93 | 1008.6 |
| 20260505212049 | 10 | 320 | 0.0 | 3.2 | 0.00 | 0.86 | 0.86 | 93 | 1008.6 |
| 20260505211942 | 10 | 320 | 0.0 | 3.2 | 0.00 | 0.86 | 0.86 | 93 | 1008.5 |
| 20260505211842 | 10 | 320 | 0.0 | 3.2 | 0.00 | 0.86 | 0.86 | 93 | 1008.5 |
| 20260505211738 | 10 | 320 | 0.0 | 3.2 | 0.00 | 0.86 | 0.86 | 93 | 1008.5 |
| 20260505211635 | 10 | 320 | 0.0 | 3.2 | 0.00 | 0.86 | 0.86 | 93 | 1008.5 |
| 20260505211534 | 10 | 320 | 0.0 | 3.2 | 0.00 | 0.86 | 0.86 | 93 | 1008.6 |
| 20260505211432 | 10 | 320 | 0.0 | 3.2 | 0.00 | 0.86 | 0.86 | 93 | 1008.6 |
| 20260505211326 | 10 | 320 | 0.0 | 3.2 | 0.00 | 0.86 | 0.86 | 93 | 1008.7 |
| 20260505211225 | 10 | 320 | 0.0 | 0.0 | 0.00 | 0.86 | 0.86 | 93 | 1008.8 |
| 20260505211123 | 10 | 320 | 0.0 | 0.0 | 0.00 | 0.86 | 0.86 | 93 | 1008.8 |
| 20260505211050 | 10 | 320 | 0.0 | 0.0 | 0.00 | 0.86 | 0.86 | 93 | 1008.7 |
| 20260505211018 | 10 | 320 | 0.0 | 0.0 | 0.00 | 0.86 | 0.86 | 93 | 1008.8 |
| 20260505210820 | 10 | 320 | 0.0 | 0.0 | 0.00 | 0.86 | 0.86 | 93 | 1008.8 |
| 20260505210719 | 10 | 320 | 0.0 | 1.6 | 0.00 | 0.86 | 0.86 | 93 | 1008.8 |
| 20260505210612 | 10 | 320 | 0.0 | 1.6 | 0.00 | 0.86 | 0.86 | 93 | 1008.8 |
| 20260505210512 | 10 | 320 | 0.0 | 1.6 | 0.00 | 0.86 | 0.86 | 93 | 1008.7 |
| 20260505210409 | 10 | 320 | 0.0 | 1.6 | 0.00 | 0.86 | 0.86 | 93 | 1008.7 |
| 20260505210311 | 10 | 320 | 0.0 | 1.6 | 0.00 | 0.86 | 0.86 | 92 | 1008.7 |
| 20260505210210 | 10 | 320 | 0.0 | 1.6 | 0.00 | 0.86 | 0.86 | 92 | 1008.7 |
| 20260505210110 | 10 | 320 | 0.0 | 1.6 | 0.00 | 0.86 | 0.86 | 92 | 1008.7 |
| 20260505210007 | 10 | 320 | 0.0 | 1.6 | 0.00 | 0.86 | 0.86 | 92 | 1008.7 |
| 20260505205757 | 10 | 320 | 0.0 | 1.6 | 0.00 | 0.86 | 0.86 | 92 | 1008.6 |
| 20260505205654 | 10 | 320 | 0.0 | 1.6 | 0.00 | 0.86 | 0.86 | 92 | 1008.6 |
| 20260505205553 | 10 | 320 | 0.0 | 3.2 | 0.00 | 0.86 | 0.86 | 92 | 1008.6 |
| 20260505205451 | 10 | 320 | 0.0 | 3.2 | 0.00 | 0.86 | 0.86 | 92 | 1008.6 |
| 20260505205351 | 10 | 320 | 0.0 | 3.2 | 0.00 | 0.86 | 0.86 | 92 | 1008.6 |
| 20260505205252 | 10 | 320 | 0.0 | 3.2 | 0.00 | 0.86 | 0.86 | 92 | 1008.6 |
| 20260505205147 | 10 | 320 | 0.0 | 3.2 | 0.00 | 0.86 | 0.86 | 93 | 1008.6 |
| 20260505205046 | 10 | 320 | 0.0 | 3.2 | 0.00 | 0.86 | 0.86 | 93 | 1008.7 |
| 20260505204946 | 10 | 320 | 0.0 | 3.2 | 0.00 | 0.86 | 0.86 | 92 | 1008.6 |
| 20260505204843 | 10 | 320 | 0.0 | 3.2 | 0.00 | 0.86 | 0.86 | 92 | 1008.6 |
| 20260505204743 | 10 | 320 | 1.6 | 3.2 | 0.00 | 0.86 | 0.86 | 92 | 1008.6 |
| 20260505204642 | 10 | 320 | 1.6 | 3.2 | 0.00 | 0.86 | 0.86 | 92 | 1008.6 |
| 20260505204539 | 10 | 320 | 0.0 | 3.2 | 0.00 | 0.86 | 0.86 | 92 | 1008.6 |
| 20260505204439 | 10 | 320 | 0.0 | 3.2 | 0.00 | 0.86 | 0.86 | 92 | 1008.6 |
| 20260505204339 | 10 | 320 | 0.0 | 3.2 | 0.00 | 0.86 | 0.86 | 92 | 1008.5 |
| 20260505204232 | 10 | 320 | 0.0 | 3.2 | 0.00 | 0.86 | 0.86 | 92 | 1008.5 |
| 20260505204129 | 10 | 320 | 0.0 | 1.6 | 0.00 | 0.86 | 0.86 | 92 | 1008.5 |
| 20260505204029 | 10 | 320 | 0.0 | 1.6 | 0.00 | 0.86 | 0.86 | 92 | 1008.5 |
| 20260505203927 | 10 | 320 | 0.0 | 1.6 | 0.00 | 0.86 | 0.86 | 92 | 1008.5 |
| 20260505203824 | 10 | 320 | 0.0 | 1.6 | 0.00 | 0.86 | 0.86 | 92 | 1008.5 |
| 20260505203725 | 10 | 320 | 0.0 | 1.6 | 0.00 | 0.86 | 0.86 | 92 | 1008.6 |
| 20260505203624 | 10 | 320 | 0.0 | 1.6 | 0.00 | 0.86 | 0.86 | 92 | 1008.6 |
| 20260505203522 | 10 | 320 | 0.0 | 1.6 | 0.00 | 0.86 | 0.86 | 92 | 1008.5 |
| 20260505203421 | 10 | 320 | 0.0 | 1.6 | 0.00 | 0.86 | 0.86 | 92 | 1008.6 |
| 20260505203319 | 10 | 320 | 0.0 | 1.6 | 0.00 | 0.86 | 0.86 | 92 | 1008.6 |
| 20260505203218 | 10 | 320 | 0.0 | 1.6 | 0.00 | 0.86 | 0.86 | 92 | 1008.5 |
| 20260505203113 | 10 | 320 | 0.0 | 1.6 | 0.00 | 0.86 | 0.86 | 92 | 1008.6 |
| 20260505203012 | 10 | 320 | 0.0 | 1.6 | 0.00 | 0.86 | 0.86 | 92 | 1008.5 |
| 20260505202910 | 10 | 320 | 0.0 | 1.6 | 0.00 | 0.86 | 0.86 | 92 | 1008.5 |
| 20260505202810 | 10 | 320 | 0.0 | 1.6 | 0.00 | 0.86 | 0.86 | 92 | 1008.6 |
| 20260505202709 | 10 | 320 | 0.0 | 1.6 | 0.00 | 0.86 | 0.86 | 92 | 1008.5 |
| 20260505202608 | 11 | 320 | 0.0 | 1.6 | 0.00 | 0.86 | 0.86 | 92 | 1008.5 |
| 20260505202506 | 11 | 320 | 0.0 | 1.6 | 0.00 | 0.86 | 0.86 | 92 | 1008.6 |
| 20260505202404 | 11 | 320 | 0.0 | 1.6 | 0.00 | 0.86 | 0.86 | 91 | 1008.6 |
| 20260505202306 | 11 | 320 | 0.0 | 1.6 | 0.00 | 0.86 | 0.86 | 91 | 1008.5 |
| 20260505202208 | 11 | 320 | 0.0 | 1.6 | 0.00 | 0.86 | 0.86 | 91 | 1008.5 |
| 20260505202105 | 11 | 320 | 0.0 | 1.6 | 0.00 | 0.86 | 0.86 | 91 | 1008.5 |
| 20260505202004 | 11 | 320 | 0.0 | 1.6 | 0.00 | 0.86 | 0.86 | 92 | 1008.5 |
| 20260505201756 | 11 | 320 | 0.0 | 0.0 | 0.00 | 0.86 | 0.86 | 92 | 1008.6 |
| 20260505201657 | 11 | 320 | 0.0 | 0.0 | 0.00 | 0.86 | 0.86 | 92 | 1008.5 |
| 20260505201554 | 11 | 320 | 0.0 | 0.0 | 0.00 | 0.86 | 0.86 | 91 | 1008.5 |
| 20260505201454 | 11 | 320 | 0.0 | 0.0 | 0.00 | 0.86 | 0.86 | 92 | 1008.5 |
| 20260505201250 | 11 | 320 | 0.0 | 0.0 | 0.00 | 0.86 | 0.86 | 91 | 1008.5 |
| 20260505201151 | 11 | 320 | 0.0 | 0.0 | 0.00 | 0.86 | 0.86 | 91 | 1008.5 |
| 20260505201050 | 11 | 320 | 0.0 | 0.0 | 0.00 | 0.86 | 0.86 | 92 | 1008.5 |
| 20260505200949 | 11 | 320 | 0.0 | 0.0 | 0.00 | 0.86 | 0.86 | 91 | 1008.6 |
| 20260505200746 | 11 | 320 | 0.0 | 0.0 | 0.00 | 0.86 | 0.86 | 91 | 1008.5 |
| 20260505200641 | 11 | 320 | 0.0 | 0.0 | 0.00 | 0.86 | 0.86 | 91 | 1008.5 |
| 20260505200540 | 11 | 320 | 0.0 | 1.6 | 0.00 | 0.86 | 0.86 | 91 | 1008.4 |
| 20260505200440 | 11 | 320 | 0.0 | 1.6 | 0.00 | 0.86 | 0.86 | 91 | 1008.4 |
| 20260505200237 | 11 | 320 | 0.0 | 1.6 | 0.00 | 0.86 | 0.86 | 91 | 1008.3 |
| 20260505200137 | 11 | 320 | 0.0 | 1.6 | 0.00 | 0.86 | 0.86 | 91 | 1008.3 |
| 20260505200029 | 11 | 320 | 0.0 | 1.6 | 0.00 | 0.86 | 0.86 | 91 | 1008.3 |
| 20260505200000 | 11 | 320 | 0.0 | 1.6 | 0.00 | 0.86 | 0.86 | 91 | 1008.3 |
| 20260505195827 | 11 | 320 | 0.0 | 1.6 | 0.00 | 0.86 | 0.86 | 91 | 1008.2 |
| 20260505195725 | 11 | 320 | 0.0 | 1.6 | 0.00 | 0.86 | 0.86 | 91 | 1008.2 |
| 20260505195623 | 11 | 320 | 0.0 | 1.6 | 0.00 | 0.86 | 0.86 | 91 | 1008.2 |
| 20260505195522 | 11 | 320 | 0.0 | 1.6 | 0.00 | 0.86 | 0.86 | 91 | 1008.2 |
| 20260505195422 | 11 | 320 | 0.0 | 1.6 | 0.00 | 0.86 | 0.86 | 91 | 1008.1 |
| 20260505195319 | 11 | 320 | 0.0 | 1.6 | 0.00 | 0.86 | 0.86 | 91 | 1008.2 |
| 20260505195220 | 11 | 320 | 0.0 | 1.6 | 0.00 | 0.86 | 0.86 | 91 | 1008.1 |
| 20260505195118 | 11 | 320 | 0.0 | 1.6 | 0.00 | 0.86 | 0.86 | 91 | 1008.1 |
| 20260505195011 | 11 | 320 | 0.0 | 1.6 | 0.00 | 0.86 | 0.86 | 90 | 1008.1 |
| 20260505194911 | 11 | 320 | 0.0 | 1.6 | 0.00 | 0.86 | 0.86 | 90 | 1008.1 |
| 20260505194803 | 11 | 320 | 0.0 | 3.2 | 0.00 | 0.86 | 0.86 | 90 | 1008.1 |
| 20260505194659 | 11 | 320 | 0.0 | 3.2 | 0.00 | 0.86 | 0.86 | 90 | 1008.1 |
| 20260505194601 | 11 | 320 | 0.0 | 3.2 | 0.00 | 0.86 | 0.86 | 90 | 1008.0 |
| 20260505194500 | 11 | 320 | 0.0 | 3.2 | 0.00 | 0.86 | 0.86 | 90 | 1008.1 |
| 20260505194355 | 11 | 320 | 0.0 | 3.2 | 0.00 | 0.86 | 0.86 | 90 | 1008.0 |
| 20260505194257 | 11 | 320 | 0.0 | 3.2 | 0.00 | 0.86 | 0.86 | 90 | 1008.0 |
| 20260505194155 | 11 | 320 | 0.0 | 4.8 | 0.00 | 0.86 | 0.86 | 90 | 1008.0 |
| 20260505194053 | 11 | 314 | 0.0 | 4.8 | 0.00 | 0.86 | 0.86 | 90 | 1008.0 |
| 20260505193954 | 11 | 314 | 0.0 | 4.8 | 0.00 | 0.86 | 0.86 | 90 | 1008.0 |
| 20260505193747 | 11 | 274 | 0.0 | 4.8 | 0.00 | 0.86 | 0.86 | 90 | 1008.0 |
| 20260505193647 | 11 | 274 | 0.0 | 6.4 | 0.00 | 0.86 | 0.86 | 90 | 1008.0 |
| 20260505193544 | 11 | 274 | 0.0 | 6.4 | 0.00 | 0.86 | 0.86 | 90 | 1007.9 |
| 20260505193446 | 11 | 274 | 0.0 | 6.4 | 0.00 | 0.86 | 0.86 | 90 | 1007.9 |
| 20260505193241 | 11 | 274 | 1.6 | 6.4 | 0.00 | 0.86 | 0.86 | 90 | 1007.9 |
| 20260505193140 | 11 | 306 | 1.6 | 6.4 | 0.00 | 0.86 | 0.86 | 90 | 1007.9 |
| 20260505193039 | 11 | 306 | 1.6 | 6.4 | 0.00 | 0.86 | 0.86 | 90 | 1007.9 |
| 20260505192938 | 11 | 307 | 1.6 | 9.7 | 0.00 | 0.86 | 0.86 | 90 | 1007.9 |
| 20260505192740 | 11 | 307 | 3.2 | 14.5 | 0.03 | 0.86 | 0.86 | 90 | 1007.8 |
| 20260505192638 | 11 | 285 | 1.6 | 14.5 | 0.03 | 0.86 | 0.86 | 90 | 1007.8 |
| 20260505192537 | 11 | 280 | 1.6 | 14.5 | 0.03 | 0.86 | 0.86 | 90 | 1007.8 |
| 20260505192431 | 11 | 329 | 0.0 | 14.5 | 0.03 | 0.86 | 0.86 | 90 | 1007.7 |
| 20260505192229 | 11 | 330 | 3.2 | 14.5 | 0.03 | 0.86 | 0.86 | 90 | 1007.9 |
| 20260505192124 | 11 | 330 | 6.4 | 14.5 | 0.03 | 0.86 | 0.86 | 90 | 1007.8 |
| 20260505192023 | 11 | 311 | 4.8 | 14.5 | 0.03 | 0.86 | 0.86 | 90 | 1007.8 |
| 20260505191921 | 11 | 306 | 3.2 | 14.5 | 0.03 | 0.86 | 0.86 | 90 | 1007.8 |
| 20260505191820 | 11 | 299 | 3.2 | 14.5 | 0.03 | 0.86 | 0.86 | 90 | 1007.8 |
| 20260505191722 | 11 | 301 | 3.2 | 14.5 | 0.05 | 0.86 | 0.86 | 90 | 1007.8 |
| 20260505191619 | 11 | 323 | 6.4 | 16.1 | 0.05 | 0.86 | 0.86 | 90 | 1007.8 |
| 20260505191514 | 11 | 322 | 6.4 | 16.1 | 0.05 | 0.86 | 0.86 | 90 | 1007.7 |
| 20260505191415 | 11 | 325 | 4.8 | 16.1 | 0.05 | 0.86 | 0.86 | 90 | 1007.8 |
| 20260505191313 | 11 | 289 | 4.8 | 16.1 | 0.05 | 0.86 | 0.86 | 90 | 1007.8 |
| 20260505191214 | 11 | 312 | 6.4 | 16.1 | 0.05 | 0.86 | 0.86 | 90 | 1007.8 |
| 20260505191113 | 11 | 279 | 6.4 | 16.1 | 0.05 | 0.86 | 0.86 | 90 | 1007.8 |
| 20260505191012 | 11 | 303 | 4.8 | 16.1 | 0.08 | 0.86 | 0.86 | 90 | 1007.9 |
| 20260505190910 | 11 | 323 | 3.2 | 16.1 | 0.08 | 0.86 | 0.86 | 90 | 1007.8 |
| 20260505190810 | 11 | 327 | 8.0 | 16.1 | 0.08 | 0.86 | 0.86 | 90 | 1007.8 |
| 20260505190708 | 11 | 330 | 8.0 | 16.1 | 0.10 | 0.86 | 0.86 | 90 | 1007.9 |
| 20260505190606 | 11 | 330 | 6.4 | 16.1 | 0.10 | 0.86 | 0.86 | 90 | 1007.8 |
| 20260505190505 | 11 | 306 | 6.4 | 16.1 | 0.10 | 0.86 | 0.86 | 90 | 1007.8 |
| 20260505190403 | 11 | 314 | 8.0 | 16.1 | 0.10 | 0.86 | 0.86 | 90 | 1007.8 |
| 20260505190303 | 11 | 329 | 9.7 | 16.1 | 0.13 | 0.86 | 0.86 | 90 | 1007.8 |
| 20260505190201 | 11 | 320 | 9.7 | 16.1 | 0.15 | 0.86 | 0.86 | 90 | 1007.8 |
| 20260505185958 | 11 | 312 | 9.7 | 16.1 | 0.15 | 0.86 | 0.86 | 90 | 1007.8 |
| 20260505185852 | 11 | 325 | 9.7 | 16.1 | 0.18 | 0.86 | 0.86 | 89 | 1007.8 |
| 20260505185751 | 11 | 326 | 6.4 | 16.1 | 0.20 | 0.86 | 0.86 | 89 | 1007.8 |
| 20260505185651 | 11 | 319 | 4.8 | 16.1 | 0.23 | 0.86 | 0.86 | 89 | 1007.9 |
| 20260505185551 | 11 | 272 | 6.4 | 16.1 | 0.23 | 0.86 | 0.86 | 89 | 1007.8 |
| 20260505185452 | 11 | 335 | 8.0 | 16.1 | 0.25 | 0.86 | 0.86 | 89 | 1007.8 |
| 20260505185351 | 11 | 285 | 6.4 | 14.5 | 0.25 | 0.86 | 0.86 | 89 | 1007.8 |
| 20260505185249 | 11 | 309 | 4.8 | 14.5 | 0.25 | 0.86 | 0.86 | 89 | 1007.9 |
| 20260505185149 | 11 | 313 | 3.2 | 14.5 | 0.28 | 0.86 | 0.86 | 89 | 1007.9 |
| 20260505185048 | 11 | 289 | 3.2 | 14.5 | 0.33 | 0.86 | 0.86 | 89 | 1007.9 |
| 20260505184947 | 11 | 322 | 6.4 | 14.5 | 0.33 | 0.86 | 0.86 | 89 | 1008.0 |
| 20260505184845 | 11 | 322 | 8.0 | 14.5 | 0.38 | 0.86 | 0.86 | 89 | 1008.0 |
| 20260505184743 | 11 | 316 | 8.0 | 14.5 | 0.43 | 0.86 | 0.86 | 89 | 1008.0 |
| 20260505184642 | 11 | 314 | 8.0 | 14.5 | 0.46 | 0.86 | 0.86 | 89 | 1008.1 |
| 20260505184541 | 11 | 307 | 9.7 | 14.5 | 0.48 | 0.86 | 0.86 | 89 | 1008.1 |
| 20260505184439 | 11 | 295 | 8.0 | 12.9 | 0.53 | 0.86 | 0.86 | 89 | 1008.2 |
| 20260505184338 | 11 | 293 | 4.8 | 12.9 | 0.61 | 0.86 | 0.86 | 89 | 1008.2 |
| 20260505184236 | 11 | 274 | 6.4 | 12.9 | 0.61 | 0.86 | 0.86 | 89 | 1008.3 |
| 20260505184135 | 11 | 287 | 6.4 | 12.9 | 0.66 | 0.86 | 0.86 | 89 | 1008.3 |
| 20260505184035 | 11 | 305 | 4.8 | 12.9 | 0.71 | 0.86 | 0.86 | 89 | 1008.3 |
| 20260505184002 | 11 | 326 | 3.2 | 9.7 | 0.79 | 0.86 | 0.86 | 89 | 1008.3 |
| 20260505183928 | 11 | 329 | 1.6 | 6.4 | 0.79 | 0.86 | 0.86 | 90 | 1008.3 |
| 20260505183730 | 11 | 334 | 1.6 | 4.8 | 0.81 | 0.86 | 0.86 | 89 | 1008.3 |
| 20260505183628 | 11 | 334 | 0.0 | 4.8 | 0.81 | 0.86 | 0.86 | 89 | 1008.3 |
| 20260505183526 | 11 | 334 | 0.0 | 4.8 | 0.86 | 0.86 | 0.86 | 89 | 1008.3 |
| 20260505183424 | 11 | 334 | 0.0 | 4.8 | 0.86 | 0.86 | 0.86 | 89 | 1008.4 |
| 20260505183221 | 11 | 334 | 0.0 | 4.8 | 0.86 | 0.86 | 0.86 | 89 | 1008.4 |
| 20260505183121 | 11 | 334 | 0.0 | 4.8 | 0.86 | 0.86 | 0.86 | 89 | 1008.5 |
| 20260505183020 | 11 | 334 | 0.0 | 4.8 | 0.86 | 0.86 | 0.86 | 89 | 1008.5 |
| 20260505182918 | 11 | 334 | 1.6 | 4.8 | 0.84 | 0.84 | 0.86 | 89 | 1008.6 |
| 20260505182718 | 11 | 31 | 0.0 | 3.2 | 0.84 | 0.84 | 0.84 | 89 | 1008.6 |
| 20260505182616 | 11 | 31 | 0.0 | 4.8 | 0.84 | 0.84 | 0.84 | 89 | 1008.6 |
| 20260505182518 | 11 | 31 | 0.0 | 6.4 | 0.84 | 0.84 | 0.84 | 89 | 1008.6 |
| 20260505182449 | 11 | 31 | 0.0 | 6.4 | 0.84 | 0.84 | 0.84 | 89 | 1008.6 |
| 20260505182416 | 11 | 34 | 0.0 | 6.4 | 0.84 | 0.84 | 0.84 | 89 | 1008.6 |
| 20260505182209 | 11 | 34 | 0.0 | 6.4 | 0.84 | 0.84 | 0.84 | 88 | 1008.5 |
| 20260505182105 | 11 | 34 | 0.0 | 6.4 | 0.84 | 0.84 | 0.84 | 88 | 1008.4 |
| 20260505182008 | 11 | 34 | 0.0 | 9.7 | 0.84 | 0.84 | 0.84 | 88 | 1008.5 |
| 20260505181906 | 11 | 34 | 0.0 | 16.1 | 0.84 | 0.84 | 0.84 | 88 | 1008.4 |
| 20260505181805 | 11 | 34 | 1.6 | 17.7 | 0.84 | 0.84 | 0.84 | 88 | 1008.4 |
| 20260505181709 | 11 | 33 | 1.6 | 19.3 | 0.81 | 0.81 | 0.81 | 88 | 1008.3 |
| 20260505181603 | 11 | 22 | 1.6 | 19.3 | 0.81 | 0.81 | 0.81 | 88 | 1008.3 |
| 20260505181500 | 11 | 328 | 1.6 | 19.3 | 0.81 | 0.81 | 0.81 | 88 | 1008.3 |
| 20260505181356 | 11 | 288 | 3.2 | 19.3 | 0.79 | 0.79 | 0.81 | 88 | 1008.4 |
| 20260505181257 | 11 | 249 | 4.8 | 19.3 | 0.79 | 0.79 | 0.79 | 88 | 1008.4 |
| 20260505181157 | 11 | 305 | 6.4 | 19.3 | 0.79 | 0.79 | 0.79 | 88 | 1008.4 |
| 20260505181057 | 11 | 276 | 9.7 | 20.9 | 0.79 | 0.79 | 0.79 | 88 | 1008.4 |
| 20260505180955 | 11 | 299 | 11.3 | 20.9 | 0.79 | 0.79 | 0.79 | 87 | 1008.3 |
| 20260505180854 | 12 | 293 | 9.7 | 20.9 | 0.79 | 0.79 | 0.79 | 87 | 1008.3 |
| 20260505180752 | 12 | 258 | 6.4 | 20.9 | 0.79 | 0.79 | 0.79 | 87 | 1008.3 |
| 20260505180656 | 12 | 285 | 8.0 | 20.9 | 0.76 | 0.76 | 0.79 | 87 | 1008.4 |
| 20260505180550 | 12 | 284 | 11.3 | 20.9 | 0.76 | 0.76 | 0.76 | 87 | 1008.4 |
| 20260505180449 | 12 | 265 | 12.9 | 24.1 | 0.76 | 0.76 | 0.76 | 87 | 1008.4 |
| 20260505180347 | 12 | 268 | 14.5 | 30.6 | 0.74 | 0.74 | 0.76 | 87 | 1008.4 |
| 20260505180246 | 12 | 273 | 12.9 | 30.6 | 0.74 | 0.74 | 0.74 | 87 | 1008.4 |
| 20260505180145 | 12 | 265 | 12.9 | 30.6 | 0.71 | 0.71 | 0.74 | 87 | 1008.3 |
| 20260505180043 | 12 | 238 | 12.9 | 30.6 | 0.71 | 0.71 | 0.71 | 86 | 1008.3 |
| 20260505175942 | 12 | 274 | 12.9 | 30.6 | 0.69 | 0.69 | 0.71 | 86 | 1008.4 |
| 20260505175841 | 12 | 239 | 12.9 | 30.6 | 0.69 | 0.69 | 0.69 | 86 | 1008.3 |
| 20260505175739 | 12 | 293 | 14.5 | 30.6 | 0.66 | 0.66 | 0.69 | 86 | 1008.2 |
| 20260505175639 | 12 | 274 | 17.7 | 30.6 | 0.64 | 0.64 | 0.66 | 86 | 1008.3 |
| 20260505175536 | 12 | 278 | 14.5 | 30.6 | 0.61 | 0.61 | 0.64 | 86 | 1008.2 |
| 20260505175431 | 12 | 295 | 12.9 | 30.6 | 0.61 | 0.61 | 0.61 | 85 | 1008.2 |
| 20260505175330 | 12 | 259 | 12.9 | 30.6 | 0.61 | 0.61 | 0.61 | 85 | 1008.2 |
| 20260505175233 | 12 | 291 | 14.5 | 30.6 | 0.58 | 0.58 | 0.58 | 85 | 1008.2 |
| 20260505175135 | 12 | 295 | 16.1 | 30.6 | 0.53 | 0.53 | 0.56 | 84 | 1008.2 |
| 20260505175030 | 12 | 279 | 14.5 | 30.6 | 0.51 | 0.51 | 0.53 | 84 | 1008.2 |
| 20260505174952 | 12 | 283 | 16.1 | 30.6 | 0.48 | 0.48 | 0.51 | 83 | 1008.2 |
| 20260505174918 | 12 | 290 | 19.3 | 30.6 | 0.43 | 0.43 | 0.46 | 83 | 1008.2 |
| 20260505174726 | 12 | 297 | 19.3 | 30.6 | 0.43 | 0.43 | 0.43 | 83 | 1008.2 |
| 20260505174625 | 13 | 277 | 16.1 | 29.0 | 0.41 | 0.41 | 0.41 | 83 | 1008.2 |
| 20260505174524 | 13 | 280 | 16.1 | 29.0 | 0.38 | 0.38 | 0.38 | 82 | 1008.1 |
| 20260505174422 | 13 | 285 | 16.1 | 32.2 | 0.33 | 0.33 | 0.33 | 81 | 1008.2 |
| 20260505174320 | 13 | 229 | 16.1 | 33.8 | 0.25 | 0.25 | 0.28 | 81 | 1008.3 |
| 20260505174218 | 13 | 273 | 16.1 | 33.8 | 0.20 | 0.20 | 0.23 | 81 | 1008.2 |
| 20260505174113 | 14 | 259 | 12.9 | 33.8 | 0.20 | 0.20 | 0.20 | 80 | 1008.4 |
| 20260505174012 | 14 | 269 | 11.3 | 33.8 | 0.15 | 0.15 | 0.15 | 79 | 1008.4 |
| 20260505173911 | 14 | 256 | 11.3 | 33.8 | 0.08 | 0.08 | 0.10 | 78 | 1008.5 |
| 20260505173809 | 15 | 246 | 14.5 | 33.8 | 0.05 | 0.05 | 0.05 | 77 | 1008.4 |
| 20260505173708 | 15 | 238 | 16.1 | 33.8 | 0.05 | 0.05 | 0.05 | 77 | 1008.4 |
| 20260505173611 | 15 | 250 | 19.3 | 33.8 | 0.00 | 0.00 | 0.03 | 76 | 1008.4 |
| 20260505173509 | 15 | 249 | 14.5 | 33.8 | 0.00 | 0.00 | 0.00 | 74 | 1008.4 |
| 20260505173409 | 16 | 222 | 11.3 | 33.8 | 0.00 | 0.00 | 0.00 | 72 | 1008.5 |
| 20260505173308 | 16 | 178 | 11.3 | 32.2 | 0.00 | 0.00 | 0.00 | 71 | 1008.3 |
| 20260505173227 | 16 | 216 | 11.3 | 32.2 | 0.00 | 0.00 | 0.00 | 70 | 1008.4 |
| 20260505173149 | 16 | 280 | 14.5 | 32.2 | 0.00 | 0.00 | 0.00 | 68 | 1008.2 |
| 20260505173010 | 16 | 223 | 17.7 | 32.2 | 0.00 | 0.00 | 0.00 | 66 | 1008.2 |
| 20260505172935 | 16 | 216 | 22.5 | 32.2 | 0.00 | 0.00 | 0.00 | 65 | 1008.3 |
| 20260505172902 | 16 | 216 | 24.1 | 32.2 | 0.00 | 0.00 | 0.00 | 65 | 1008.4 |
| 20260505172659 | 17 | 250 | 19.3 | 32.2 | 0.00 | 0.00 | 0.00 | 65 | 1008.3 |
| 20260505172558 | 17 | 232 | 12.9 | 32.2 | 0.00 | 0.00 | 0.00 | 66 | 1008.2 |
| 20260505172507 | 17 | 216 | 4.8 | 20.9 | 0.00 | 0.00 | 0.00 | 68 | 1008.4 |
| 20260505172434 | 17 | 233 | 1.6 | 8.0 | 0.00 | 0.00 | 0.00 | 67 | 1007.9 |
| 20260505172359 | 17 | 291 | 0.0 | 6.4 | 0.00 | 0.00 | 0.00 | 67 | 1007.6 |
| 20260505172154 | 17 | 323 | 0.0 | 6.4 | 0.00 | 0.00 | 0.00 | 67 | 1007.4 |
| 20260505172048 | 17 | 322 | 1.6 | 9.7 | 0.00 | 0.00 | 0.00 | 67 | 1007.2 |
| 20260505171947 | 17 | 320 | 1.6 | 9.7 | 0.00 | 0.00 | 0.00 | 67 | 1007.2 |
| 20260505171843 | 17 | 320 | 1.6 | 9.7 | 0.00 | 0.00 | 0.00 | 67 | 1007.1 |
| 20260505171742 | 17 | 324 | 0.0 | 9.7 | 0.00 | 0.00 | 0.00 | 67 | 1007.2 |
| 20260505171643 | 17 | 326 | 1.6 | 9.7 | 0.00 | 0.00 | 0.00 | 67 | 1007.1 |
| 20260505171536 | 17 | 326 | 1.6 | 11.3 | 0.00 | 0.00 | 0.00 | 67 | 1007.0 |
| 20260505171432 | 17 | 324 | 0.0 | 11.3 | 0.00 | 0.00 | 0.00 | 67 | 1007.0 |
| 20260505171333 | 17 | 324 | 0.0 | 11.3 | 0.00 | 0.00 | 0.00 | 67 | 1007.1 |
| 20260505171229 | 17 | 324 | 1.6 | 11.3 | 0.00 | 0.00 | 0.00 | 67 | 1007.1 |
| 20260505171131 | 17 | 324 | 1.6 | 11.3 | 0.00 | 0.00 | 0.00 | 67 | 1007.0 |
| 20260505171024 | 17 | 330 | 1.6 | 11.3 | 0.00 | 0.00 | 0.00 | 67 | 1007.1 |
| 20260505170921 | 17 | 344 | 1.6 | 11.3 | 0.00 | 0.00 | 0.00 | 67 | 1007.0 |
| 20260505170820 | 17 | 1 | 3.2 | 11.3 | 0.00 | 0.00 | 0.00 | 67 | 1007.0 |
| 20260505170719 | 17 | 324 | 6.4 | 11.3 | 0.00 | 0.00 | 0.00 | 67 | 1007.1 |
| 20260505170618 | 17 | 329 | 4.8 | 11.3 | 0.00 | 0.00 | 0.00 | 67 | 1007.0 |
| 20260505170516 | 17 | 322 | 1.6 | 11.3 | 0.00 | 0.00 | 0.00 | 67 | 1007.0 |
| 20260505170417 | 17 | 328 | 1.6 | 8.0 | 0.00 | 0.00 | 0.00 | 67 | 1007.0 |
| 20260505170315 | 17 | 328 | 1.6 | 8.0 | 0.00 | 0.00 | 0.00 | 67 | 1007.0 |
| 20260505170215 | 17 | 12 | 1.6 | 9.7 | 0.00 | 0.00 | 0.00 | 67 | 1007.0 |
| 20260505170114 | 17 | 329 | 0.0 | 9.7 | 0.00 | 0.00 | 0.00 | 67 | 1007.0 |
| 20260505170013 | 17 | 329 | 1.6 | 9.7 | 0.00 | 0.00 | 0.00 | 66 | 1006.9 |
| 20260505165911 | 17 | 329 | 0.0 | 9.7 | 0.00 | 0.00 | 0.00 | 67 | 1007.0 |
| 20260505165811 | 17 | 28 | 0.0 | 9.7 | 0.00 | 0.00 | 0.00 | 67 | 1006.9 |
| 20260505165708 | 17 | 31 | 0.0 | 9.7 | 0.00 | 0.00 | 0.00 | 67 | 1006.9 |
| 20260505165607 | 17 | 31 | 3.2 | 9.7 | 0.00 | 0.00 | 0.00 | 66 | 1007.0 |
| 20260505165505 | 17 | 31 | 3.2 | 9.7 | 0.00 | 0.00 | 0.00 | 66 | 1006.9 |
| 20260505165432 | 17 | 27 | 3.2 | 9.7 | 0.00 | 0.00 | 0.00 | 66 | 1007.0 |
| 20260505165358 | 17 | 31 | 3.2 | 9.7 | 0.00 | 0.00 | 0.00 | 66 | 1007.0 |
| 20260505165201 | 17 | 26 | 3.2 | 9.7 | 0.00 | 0.00 | 0.00 | 66 | 1007.0 |
| 20260505165100 | 17 | 17 | 1.6 | 9.7 | 0.00 | 0.00 | 0.00 | 66 | 1007.0 |
| 20260505164959 | 17 | 0 | 3.2 | 9.7 | 0.00 | 0.00 | 0.00 | 66 | 1007.0 |
| 20260505164857 | 17 | 345 | 4.8 | 9.7 | 0.00 | 0.00 | 0.00 | 66 | 1007.1 |
| 20260505164756 | 17 | 17 | 3.2 | 9.7 | 0.00 | 0.00 | 0.00 | 66 | 1007.0 |
| 20260505164653 | 17 | 27 | 1.6 | 9.7 | 0.00 | 0.00 | 0.00 | 66 | 1007.0 |
| 20260505164552 | 17 | 26 | 3.2 | 9.7 | 0.00 | 0.00 | 0.00 | 66 | 1007.1 |
| 20260505164447 | 17 | 24 | 4.8 | 12.9 | 0.00 | 0.00 | 0.00 | 66 | 1007.1 |
| 20260505164346 | 17 | 24 | 3.2 | 12.9 | 0.00 | 0.00 | 0.00 | 67 | 1007.0 |
| 20260505164251 | 17 | 35 | 3.2 | 12.9 | 0.00 | 0.00 | 0.00 | 67 | 1007.1 |
| 20260505164147 | 17 | 31 | 3.2 | 12.9 | 0.00 | 0.00 | 0.00 | 67 | 1007.1 |
| 20260505164046 | 17 | 53 | 3.2 | 12.9 | 0.00 | 0.00 | 0.00 | 68 | 1007.1 |
| 20260505163946 | 17 | 39 | 4.8 | 12.9 | 0.00 | 0.00 | 0.00 | 67 | 1007.1 |
| 20260505163845 | 17 | 45 | 4.8 | 12.9 | 0.00 | 0.00 | 0.00 | 67 | 1007.1 |
| 20260505163644 | 17 | 16 | 4.8 | 12.9 | 0.00 | 0.00 | 0.00 | 68 | 1007.2 |
| 20260505163540 | 17 | 32 | 4.8 | 12.9 | 0.00 | 0.00 | 0.00 | 67 | 1007.1 |
| 20260505163437 | 17 | 322 | 3.2 | 14.5 | 0.00 | 0.00 | 0.00 | 68 | 1007.1 |
| 20260505163334 | 17 | 34 | 1.6 | 14.5 | 0.00 | 0.00 | 0.00 | 68 | 1007.1 |
| 20260505163238 | 17 | 20 | 0.0 | 14.5 | 0.00 | 0.00 | 0.00 | 68 | 1007.2 |
| 20260505163141 | 17 | 20 | 3.2 | 14.5 | 0.00 | 0.00 | 0.00 | 68 | 1007.1 |
| 20260505163035 | 18 | 18 | 3.2 | 14.5 | 0.00 | 0.00 | 0.00 | 67 | 1007.1 |
| 20260505162933 | 18 | 29 | 1.6 | 14.5 | 0.00 | 0.00 | 0.00 | 67 | 1007.1 |
| 20260505162831 | 18 | 39 | 4.8 | 14.5 | 0.00 | 0.00 | 0.00 | 67 | 1007.2 |
| 20260505162730 | 18 | 40 | 6.4 | 14.5 | 0.00 | 0.00 | 0.00 | 66 | 1007.2 |
| 20260505162630 | 18 | 33 | 8.0 | 14.5 | 0.00 | 0.00 | 0.00 | 67 | 1007.2 |
| 20260505162536 | 18 | 15 | 8.0 | 14.5 | 0.00 | 0.00 | 0.00 | 67 | 1007.2 |
| 20260505162427 | 18 | 5 | 6.4 | 14.5 | 0.00 | 0.00 | 0.00 | 66 | 1007.3 |
| 20260505162326 | 18 | 350 | 6.4 | 14.5 | 0.00 | 0.00 | 0.00 | 66 | 1007.3 |
| 20260505162224 | 18 | 353 | 8.0 | 17.7 | 0.00 | 0.00 | 0.00 | 66 | 1007.3 |
| 20260505162123 | 18 | 25 | 3.2 | 17.7 | 0.00 | 0.00 | 0.00 | 67 | 1007.3 |
| 20260505162022 | 18 | 36 | 3.2 | 20.9 | 0.00 | 0.00 | 0.00 | 66 | 1007.2 |
| 20260505161921 | 18 | 13 | 4.8 | 20.9 | 0.00 | 0.00 | 0.00 | 67 | 1007.3 |
| 20260505161820 | 18 | 40 | 8.0 | 20.9 | 0.00 | 0.00 | 0.00 | 66 | 1007.3 |
| 20260505161714 | 18 | 24 | 8.0 | 20.9 | 0.00 | 0.00 | 0.00 | 66 | 1007.3 |
| 20260505161616 | 18 | 4 | 6.4 | 20.9 | 0.00 | 0.00 | 0.00 | 66 | 1007.3 |
| 20260505161523 | 18 | 43 | 6.4 | 20.9 | 0.00 | 0.00 | 0.00 | 66 | 1007.3 |
| 20260505161414 | 18 | 45 | 8.0 | 22.5 | 0.00 | 0.00 | 0.00 | 66 | 1007.3 |
| 20260505161313 | 18 | 35 | 9.7 | 22.5 | 0.00 | 0.00 | 0.00 | 66 | 1007.3 |
| 20260505161208 | 18 | 22 | 9.7 | 22.5 | 0.00 | 0.00 | 0.00 | 66 | 1007.4 |
| 20260505161110 | 18 | 43 | 9.7 | 22.5 | 0.00 | 0.00 | 0.00 | 66 | 1007.4 |
| 20260505161009 | 18 | 14 | 8.0 | 22.5 | 0.00 | 0.00 | 0.00 | 66 | 1007.4 |
| 20260505160935 | 18 | 46 | 8.0 | 22.5 | 0.00 | 0.00 | 0.00 | 66 | 1007.4 |
| 20260505160854 | 18 | 14 | 9.7 | 22.5 | 0.00 | 0.00 | 0.00 | 67 | 1007.4 |
| 20260505160706 | 18 | 61 | 11.3 | 22.5 | 0.00 | 0.00 | 0.00 | 66 | 1007.3 |
| 20260505160604 | 18 | 28 | 11.3 | 22.5 | 0.00 | 0.00 | 0.00 | 66 | 1007.3 |
| 20260505160505 | 18 | 60 | 8.0 | 22.5 | 0.00 | 0.00 | 0.00 | 66 | 1007.3 |
| 20260505160424 | 18 | 74 | 8.0 | 19.3 | 0.00 | 0.00 | 0.00 | 66 | 1007.4 |
| 20260505160351 | 18 | 52 | 9.7 | 19.3 | 0.00 | 0.00 | 0.00 | 66 | 1007.4 |
| 20260505160159 | 18 | 20 | 9.7 | 19.3 | 0.00 | 0.00 | 0.00 | 66 | 1007.4 |
| 20260505160106 | 18 | 14 | 6.4 | 19.3 | 0.00 | 0.00 | 0.00 | 66 | 1007.3 |
| 20260505153312 | 18 | 46 | 3.2 | 12.9 | 0.00 | 0.00 | 0.00 | 67 | 1007.6 |
| 20260505153211 | 18 | 12 | 4.8 | 12.9 | 0.00 | 0.00 | 0.00 | 67 | 1007.6 |
| 20260505153106 | 18 | 348 | 3.2 | 12.9 | 0.00 | 0.00 | 0.00 | 67 | 1007.6 |
| 20260505153007 | 18 | 359 | 4.8 | 11.3 | 0.00 | 0.00 | 0.00 | 67 | 1007.6 |
| 20260505152906 | 18 | 70 | 3.2 | 11.3 | 0.00 | 0.00 | 0.00 | 67 | 1007.7 |
| 20260505152806 | 18 | 29 | 4.8 | 12.9 | 0.00 | 0.00 | 0.00 | 67 | 1007.6 |
| 20260505152701 | 18 | 10 | 6.4 | 12.9 | 0.00 | 0.00 | 0.00 | 67 | 1007.7 |
| 20260505152559 | 18 | 28 | 6.4 | 12.9 | 0.00 | 0.00 | 0.00 | 67 | 1007.6 |
| 20260505152459 | 18 | 58 | 4.8 | 12.9 | 0.00 | 0.00 | 0.00 | 67 | 1007.6 |
| 20260505152357 | 18 | 37 | 4.8 | 12.9 | 0.00 | 0.00 | 0.00 | 67 | 1007.7 |
| 20260505152256 | 18 | 40 | 4.8 | 16.1 | 0.00 | 0.00 | 0.00 | 68 | 1007.7 |
| 20260505152154 | 18 | 26 | 4.8 | 16.1 | 0.00 | 0.00 | 0.00 | 68 | 1007.7 |
| 20260505152052 | 18 | 32 | 6.4 | 16.1 | 0.00 | 0.00 | 0.00 | 68 | 1007.7 |
| 20260505152000 | 18 | 53 | 4.8 | 16.1 | 0.00 | 0.00 | 0.00 | 68 | 1007.8 |
| 20260505151927 | 18 | 24 | 3.2 | 16.1 | 0.00 | 0.00 | 0.00 | 68 | 1007.7 |
| 20260505151839 | 18 | 42 | 4.8 | 16.1 | 0.00 | 0.00 | 0.00 | 68 | 1007.8 |
| 20260505151655 | 18 | 51 | 6.4 | 16.1 | 0.00 | 0.00 | 0.00 | 68 | 1007.7 |
| 20260505151554 | 18 | 47 | 9.7 | 16.1 | 0.00 | 0.00 | 0.00 | 68 | 1007.8 |
| 20260505151444 | 18 | 29 | 6.4 | 16.1 | 0.00 | 0.00 | 0.00 | 68 | 1007.8 |
| 20260505151340 | 18 | 28 | 1.6 | 16.1 | 0.00 | 0.00 | 0.00 | 68 | 1007.8 |
| 20260505151237 | 18 | 6 | 4.8 | 16.1 | 0.00 | 0.00 | 0.00 | 68 | 1007.8 |
| 20260505151140 | 18 | 326 | 4.8 | 16.1 | 0.00 | 0.00 | 0.00 | 68 | 1007.8 |
| 20260505151038 | 18 | 13 | 1.6 | 17.7 | 0.00 | 0.00 | 0.00 | 68 | 1007.7 |
| 20260505150938 | 18 | 333 | 3.2 | 17.7 | 0.00 | 0.00 | 0.00 | 67 | 1007.8 |
| 20260505150835 | 18 | 335 | 3.2 | 22.5 | 0.00 | 0.00 | 0.00 | 67 | 1007.8 |
| 20260505150734 | 18 | 26 | 4.8 | 22.5 | 0.00 | 0.00 | 0.00 | 67 | 1007.8 |
| 20260505150635 | 18 | 8 | 6.4 | 22.5 | 0.00 | 0.00 | 0.00 | 67 | 1007.8 |
| 20260505150531 | 18 | 29 | 4.8 | 22.5 | 0.00 | 0.00 | 0.00 | 67 | 1007.8 |
| 20260505150441 | 18 | 35 | 6.4 | 22.5 | 0.00 | 0.00 | 0.00 | 67 | 1007.8 |
| 20260505150410 | 18 | 32 | 8.0 | 22.5 | 0.00 | 0.00 | 0.00 | 66 | 1007.8 |
| 20260505150329 | 18 | 18 | 6.4 | 22.5 | 0.00 | 0.00 | 0.00 | 66 | 1007.8 |
| 20260505150128 | 18 | 45 | 9.7 | 22.5 | 0.00 | 0.00 | 0.00 | 65 | 1007.8 |
| 20260505140611 | 19 | 319 | 6.4 | 17.7 | 0.00 | 0.00 | 0.00 | 61 | 1008.0 |
| 20260505140509 | 19 | 330 | 4.8 | 17.7 | 0.00 | 0.00 | 0.00 | 62 | 1008.0 |
| 20260505140408 | 19 | 313 | 4.8 | 16.1 | 0.00 | 0.00 | 0.00 | 62 | 1008.1 |
| 20260505140307 | 19 | 29 | 4.8 | 16.1 | 0.00 | 0.00 | 0.00 | 62 | 1008.0 |
| 20260505140209 | 19 | 336 | 3.2 | 19.3 | 0.00 | 0.00 | 0.00 | 62 | 1008.0 |
| 20260505140106 | 19 | 334 | 3.2 | 19.3 | 0.00 | 0.00 | 0.00 | 62 | 1008.0 |
| 20260505130239 | 20 | 315 | 6.4 | 19.3 | 0.00 | 0.00 | 0.00 | 58 | 1008.5 |
| 20260505130145 | 20 | 14 | 4.8 | 19.3 | 0.00 | 0.00 | 0.00 | 58 | 1008.4 |
| 20260505125022 | 20 | 331 | 6.4 | 24.1 | 0.00 | 0.00 | 0.00 | 57 | 1008.4 |
| 20260505124921 | 20 | 333 | 9.7 | 24.1 | 0.00 | 0.00 | 0.00 | 57 | 1008.5 |
| 20260505124820 | 20 | 328 | 11.3 | 24.1 | 0.00 | 0.00 | 0.00 | 57 | 1008.5 |